GFSNGP_prec_sndepth_039.txt.gz
Snowfall_Accumulation
0.0 0.0 0.0 0.0 0.0 0.0 0.0 0.0 0.1 0.0 0.0 0.0 0.0 0.0 0.0 0.0 0.0 0.0 0.0 0.0 0.0 0.0 0.0 0.0 0.0 0.0 0.0 0.0 0.0 0.0 0.0 0.0 0.0 0.0 0.0 0.0 0.0 0.0 0.0 0.0 0.0 0.0 0.0 0.0
0.0 0.0 0.0 0.0 0.0 0.0 0.0 0.0 0.0 0.0 0.0 0.0 0.0 0.0 0.0 0.0 0.0 0.0 0.0 0.0 0.0 0.0 0.0 0.0 0.0 0.0 0.0 0.0 0.0 0.0 0.0 0.0 0.0 0.0 0.0 0.0 0.0 0.0 0.0 0.0 0.0 0.0 0.0 0.0
0.0 0.0 0.0 0.4 0.0 0.0 0.0 0.0 0.0 0.1 0.0 0.0 0.0 0.0 0.0 0.0 0.0 0.0 0.0 0.0 0.0 0.0 0.0 0.0 0.0 0.0 0.0 0.0 0.0 0.0 0.0 0.0 0.0 0.0 0.0 0.0 0.0 0.0 0.0 0.0 0.0 0.0 0.0 0.0
0.9 0.4 1.5 0.0 0.0 0.0 0.0 0.0 0.0 0.0 0.0 0.0 0.0 0.0 0.0 0.0 0.0 0.0 0.0 0.0 0.0 0.0 0.0 0.0 0.0 0.0 0.0 0.0 0.0 0.0 0.0 0.0 0.0 0.0 0.0 0.0 0.0 0.0 0.0 0.0 0.0 0.0 0.0 0.0
2.1 0.4 0.0 0.0 0.0 0.0 0.0 0.0 0.0 0.0 0.0 0.0 0.0 0.0 0.0 0.0 0.0 0.0 0.0 0.0 0.0 0.0 0.0 0.0 0.0 0.0 0.0 0.0 0.0 0.0 0.0 0.0 0.0 0.0 0.0 0.0 0.0 0.0 0.0 0.0 0.0 0.0 0.0 0.0
0.8 0.3 1.6 0.0 0.0 0.0 0.0 0.1 0.0 0.0 0.0 0.0 0.0 0.2 0.0 0.0 0.0 0.0 0.0 0.0 0.0 0.0 0.0 0.0 0.0 0.0 0.0 0.0 0.0 0.0 0.0 0.0 0.0 0.0 0.0 0.0 0.0 0.0 0.0 0.0 0.0 0.0 0.0 0.0
0.9 1.2 0.5 0.0 0.0 0.0 0.3 0.0 0.0 0.0 0.0 0.0 0.0 0.0 0.0 0.0 0.0 0.0 0.0 0.0 0.0 0.0 0.0 0.0 0.0 0.0 0.0 0.0 0.0 0.0 0.0 0.0 0.0 0.0 0.0 0.0 0.0 0.0 0.0 0.0 0.0 0.0 0.0 0.0
0.8 1.0 1.5 0.0 0.0 0.0 0.1 0.0 0.0 0.0 0.0 0.0 0.0 0.0 0.0 0.0 0.0 0.0 0.0 0.0 0.0 0.0 0.0 0.0 0.0 0.0 0.0 0.0 0.0 0.0 0.0 0.0 0.0 0.0 0.0 0.0 0.0 0.0 0.0 0.0 0.0 0.0 0.2 0.3
0.1 0.4 0.0 0.0 0.0 0.0 0.0 0.0 0.0 0.0 0.0 0.0 0.0 0.0 0.0 0.0 0.0 0.0 0.0 0.0 0.0 0.0 0.0 0.0 0.0 0.0 0.0 0.0 0.0 0.0 0.0 0.0 0.0 0.0 0.0 0.0 0.0 0.0 0.0 0.0 0.3 0.1 0.5 0.8
0.0 0.0 0.0 0.0 0.0 0.0 0.0 0.0 0.0 0.0 0.0 0.0 0.0 0.0 0.0 0.0 0.0 0.0 0.0 0.0 0.0 0.0 0.0 0.0 0.0 0.0 0.0 0.0 0.0 0.0 0.0 0.0 0.0 0.0 0.0 0.0 0.0 0.0 0.0 0.3 0.5 0.5 0.6 0.5
0.0 0.0 0.0 0.0 0.0 0.0 0.0 0.0 0.0 0.0 0.0 0.0 0.0 0.0 0.0 0.0 0.0 0.0 0.0 0.0 0.0 0.0 0.0 0.0 0.0 0.0 0.0 0.0 0.0 0.0 0.0 0.0 0.0 0.1 0.0 0.0 0.0 0.0 0.3 0.0 0.2 0.6 0.6 0.6
0.3 0.0 0.0 0.0 0.0 0.0 0.0 0.0 0.0 0.0 0.0 0.0 0.0 0.0 0.0 0.0 0.0 0.0 0.0 0.0 0.0 0.0 0.0 0.0 0.0 0.0 0.0 0.0 0.0 0.0 0.0 0.2 0.3 0.4 0.3 0.0 0.0 0.0 nan nan nan nan nan 2.4
0.0 0.0 0.0 0.0 0.0 0.0 0.0 0.0 0.0 0.0 0.0 0.0 0.0 0.0 0.0 0.0 0.0 nan 0.0 0.0 0.0 0.0 0.0 0.0 0.0 0.0 0.0 0.0 0.0 0.0 0.0 0.0 0.4 0.4 0.5 0.5 0.6 0.6 0.8 0.6 nan nan nan nan
0.0 0.0 0.0 0.0 0.0 0.0 0.0 0.0 0.0 0.0 0.0 0.0 0.0 0.0 0.0 0.0 0.0 0.0 0.0 0.0 0.0 0.0 0.0 0.0 0.0 0.0 0.0 0.0 0.0 0.0 0.0 0.0 0.5 0.5 0.5 0.7 1.0 1.0 1.0 1.6 3.0 2.2 nan nan
0.0 0.0 0.0 0.0 0.0 0.0 0.0 0.0 0.0 0.0 0.0 0.0 0.0 0.0 0.0 0.0 0.0 0.0 0.0 0.0 0.0 0.0 0.0 0.0 0.0 0.0 0.0 0.0 0.0 0.0 0.1 0.4 0.8 1.4 1.6 1.5 1.6 1.4 1.3 1.9 2.1 1.9 1.6 0.7
0.0 0.0 0.0 0.0 0.0 0.0 0.0 0.0 0.0 0.0 0.0 0.0 0.0 0.0 0.0 0.0 0.0 0.0 0.0 0.0 0.2 0.3 0.0 3.4 0.4 0.0 0.0 0.0 0.0 0.0 0.2 0.0 0.7 1.2 1.5 1.5 1.6 1.7 1.5 2.0 2.6 2.6 2.3 2.4
0.0 0.0 0.0 0.0 0.0 0.0 0.0 0.0 0.0 0.0 0.0 0.0 0.0 0.0 0.0 0.1 0.1 0.1 0.1 0.3 1.7 2.1 1.1 0.9 0.4 0.1 0.1 0.0 0.0 0.2 0.4 0.9 0.0 1.6 1.2 1.4 1.9 2.6 2.0 2.9 3.1 2.8 4.8 8.7
0.0 0.0 0.0 0.0 0.0 0.0 0.0 0.0 0.0 0.0 0.0 0.0 1.2 2.8 4.1 3.9 1.6 2.0 2.1 2.4 3.5 3.2 1.3 0.6 0.3 0.1 0.0 0.0 0.0 0.3 1.0 1.1 1.4 2.0 1.7 2.9 2.0 1.9 2.9 3.0 3.1 3.8 4.7 13.8
0.0 0.0 0.0 0.0 0.0 0.0 0.0 0.1 0.3 0.7 2.6 2.7 4.9 5.1 5.5 6.7 4.6 3.9 3.3 6.7 6.7 1.5 0.5 0.3 0.0 0.1 0.1 0.0 0.2 1.0 1.9 4.1 2.0 1.3 1.7 5.3 5.3 2.6 5.0 6.4 5.5 7.6 5.1 5.9
0.0 0.0 0.0 0.0 0.1 0.9 0.7 2.5 3.3 3.6 3.4 4.1 8.1 8.9 5.5 6.5 6.5 6.7 3.3 2.0 0.9 1.4 0.2 0.1 0.2 0.2 0.2 0.2 1.4 1.0 3.2 4.5 2.8 4.2 6.3 3.5 9.4 14.4 10.0 7.7 7.7 10.0 16.2 12.2
1.3 1.7 1.9 3.0 5.0 5.1 6.3 6.2 5.3 5.1 3.4 6.5 8.3 9.4 8.4 4.6 5.4 7.5 4.0 1.8 0.6 0.5 0.1 0.1 0.4 0.7 0.3 0.4 0.5 6.2 5.6 8.5 9.3 6.2 9.5 12.8 17.3 13.3 14.3 15.8 14.3 17.4 20.0 15.5
2.7 3.2 4.6 4.0 4.7 3.4 4.6 3.9 3.0 4.3 4.1 6.9 11.2 13.2 9.5 2.7 4.2 3.6 5.4 1.8 0.9 1.9 1.6 1.8 1.1 3.0 2.5 4.8 2.0 8.4 6.5 5.4 6.8 6.6 7.4 11.7 13.7 21.3 22.0 19.0 18.4 20.7 20.1 20.2
2.4 2.4 2.9 4.2 3.7 2.7 2.6 2.9 5.1 4.7 8.8 7.4 8.6 5.0 3.7 2.1 2.1 4.0 3.8 0.2 1.2 3.8 1.5 3.9 4.6 5.3 5.6 10.2 9.8 11.1 11.5 11.5 11.3 10.8 11.4 17.7 17.6 28.8 16.5 15.7 18.0 18.6 24.9 17.0
2.0 1.9 2.2 2.8 2.2 1.3 1.1 1.0 0.6 1.0 6.7 2.2 3.7 6.8 1.9 5.9 8.4 1.4 1.9 5.6 5.8 17.7 10.8 10.4 9.0 6.1 6.6 12.5 13.2 16.3 15.3 16.8 17.5 20.3 10.4 9.2 26.3 22.5 18.9 26.7 16.8 19.1 21.1 18.0
1.6 1.5 1.6 1.4 0.7 1.2 0.4 0.3 0.4 0.5 0.5 0.7 0.4 0.4 0.8 1.8 8.2 4.2 7.2 6.9 6.6 5.4 9.0 7.9 6.4 7.2 17.3 18.7 18.7 19.8 19.6 17.3 20.5 23.1 16.3 23.2 21.5 30.3 28.2 23.0 26.7 27.2 28.3 23.7
1.1 1.5 1.3 0.8 1.2 1.3 1.5 1.5 3.2 2.4 2.7 6.7 4.3 13.6 10.3 5.4 4.8 5.0 7.0 7.0 5.1 6.3 6.6 16.5 20.6 20.3 19.2 13.2 17.4 18.2 14.2 11.5 15.3 16.6 18.7 18.6 17.8 15.3 19.1 17.5 23.9 29.5 36.6 39.7
2.1 0.9 2.1 1.9 2.1 2.4 2.5 2.1 4.6 6.4 8.1 11.4 9.7 10.1 6.3 10.1 12.9 7.7 7.8 12.0 12.9 13.0 16.3 19.8 17.1 11.5 10.5 16.6 15.0 13.4 12.5 13.8 11.1 10.3 22.5 26.0 24.9 33.5 29.4 29.1 33.6 35.1 32.1 28.1

GFSNGP_prec_sndepth_042.txt.gz
Snowfall_Accumulation
0.0 0.0 0.0 0.0 0.0 0.0 0.0 0.0 0.1 0.0 0.0 0.0 0.0 0.0 0.0 0.0 0.0 0.0 0.0 0.0 0.0 0.0 0.0 0.0 0.0 0.0 0.0 0.0 0.0 0.0 0.0 0.0 0.0 0.0 0.0 0.0 0.0 0.0 0.0 0.0 0.0 0.0 0.0 0.0
0.0 0.0 0.0 0.0 0.0 0.0 0.0 0.0 0.0 0.0 0.0 0.0 0.0 0.0 0.0 0.0 0.0 0.0 0.0 0.0 0.0 0.0 0.0 0.0 0.0 0.0 0.0 0.0 0.0 0.0 0.0 0.0 0.0 0.0 0.0 0.0 0.0 0.0 0.0 0.0 0.0 0.0 0.0 0.0
0.0 0.0 0.0 0.3 0.0 0.0 0.0 0.0 0.0 0.0 0.0 0.0 0.0 0.0 0.0 0.0 0.0 0.0 0.0 0.0 0.0 0.0 0.0 0.0 0.0 0.0 0.0 0.0 0.0 0.0 0.0 0.0 0.0 0.0 0.0 0.0 0.0 0.0 0.0 0.0 0.0 0.0 0.0 0.0
0.7 0.3 1.1 0.0 0.0 0.0 0.0 0.0 0.0 0.0 0.0 0.0 0.0 0.0 0.0 0.0 0.0 0.0 0.0 0.0 0.0 0.0 0.0 0.0 0.0 0.0 0.0 0.0 0.0 0.0 0.0 0.0 0.0 0.0 0.0 0.0 0.0 0.0 0.0 0.0 0.0 0.0 0.0 0.0
1.6 0.4 0.0 0.0 0.0 0.0 0.0 0.0 0.0 0.0 0.0 0.0 0.0 0.0 0.0 0.0 0.0 0.0 0.0 0.0 0.0 0.0 0.0 0.0 0.0 0.0 0.0 0.0 0.0 0.0 0.0 0.0 0.0 0.0 0.0 0.0 0.0 0.0 0.0 0.0 0.0 0.0 0.0 0.0
0.7 0.2 1.2 0.0 0.0 0.0 0.0 0.0 0.0 0.0 0.0 0.0 0.0 0.2 0.0 0.0 0.0 0.0 0.0 0.0 0.0 0.0 0.0 0.0 0.0 0.0 0.0 0.0 0.0 0.0 0.0 0.0 0.0 0.0 0.0 0.0 0.0 0.0 0.0 0.0 0.0 0.0 0.0 0.0
0.7 0.9 0.4 0.0 0.0 0.0 0.3 0.0 0.0 0.0 0.0 0.0 0.0 0.0 0.0 0.0 0.0 0.0 0.0 0.0 0.0 0.0 0.0 0.0 0.0 0.0 0.0 0.0 0.0 0.0 0.0 0.0 0.0 0.0 0.0 0.0 0.0 0.0 0.0 0.0 0.0 0.0 0.0 0.0
0.6 0.8 1.1 0.0 0.0 0.0 0.1 0.0 0.0 0.0 0.0 0.0 0.0 0.0 0.0 0.0 0.0 0.0 0.0 0.0 0.0 0.0 0.0 0.0 0.0 0.0 0.0 0.0 0.0 0.0 0.0 0.0 0.0 0.0 0.0 0.0 0.0 0.0 0.0 0.0 0.0 0.0 0.1 0.2
0.1 0.3 0.0 0.0 0.0 0.0 0.0 0.0 0.0 0.0 0.0 0.0 0.0 0.0 0.0 0.0 0.0 0.0 0.0 0.0 0.0 0.0 0.0 0.0 0.0 0.0 0.0 0.0 0.0 0.0 0.0 0.0 0.0 0.0 0.0 0.0 0.0 0.0 0.0 0.0 0.2 0.0 0.4 0.7
0.0 0.0 0.0 0.0 0.0 0.0 0.0 0.0 0.0 0.0 0.0 0.0 0.0 0.0 0.0 0.0 0.0 0.0 0.0 0.0 0.0 0.0 0.0 0.0 0.0 0.0 0.0 0.0 0.0 0.0 0.0 0.0 0.0 0.0 0.0 0.0 0.0 0.0 0.0 0.3 0.4 0.4 0.5 0.5
0.0 0.0 0.0 0.0 0.0 0.0 0.0 0.0 0.0 0.0 0.0 0.0 0.0 0.0 0.0 0.0 0.0 0.0 0.0 0.0 0.0 0.0 0.0 0.0 0.0 0.0 0.0 0.0 0.0 0.0 0.0 0.0 0.0 0.1 0.0 0.0 0.0 0.0 0.2 0.0 0.2 0.5 0.5 0.5
0.3 0.0 0.0 0.0 0.0 0.0 0.0 0.0 0.0 0.0 0.0 0.0 0.0 0.0 0.0 0.0 0.0 0.0 0.0 0.0 0.0 0.0 0.0 0.0 0.0 0.0 0.0 0.0 0.0 0.0 0.0 0.1 0.3 0.4 0.3 0.0 0.0 0.0 nan nan nan nan nan 2.3
0.0 0.0 0.0 0.0 0.0 0.0 0.0 0.0 0.0 0.0 0.0 0.0 0.0 0.0 0.0 0.0 0.0 nan 0.0 0.0 0.0 0.0 0.0 0.0 0.0 0.0 0.0 0.0 0.0 0.0 0.0 0.0 0.4 0.4 0.4 0.4 0.5 0.6 0.8 0.5 nan nan nan nan
0.0 0.0 0.0 0.0 0.0 0.0 0.0 0.0 0.0 0.0 0.0 0.0 0.0 0.0 0.0 0.0 0.0 0.0 0.0 0.0 0.0 0.0 0.0 0.0 0.0 0.0 0.0 0.0 0.0 0.0 0.0 0.0 0.4 0.4 0.5 0.6 0.9 0.9 0.9 1.5 2.7 2.0 nan nan
0.0 0.0 0.0 0.0 0.0 0.0 0.0 0.0 0.0 0.0 0.0 0.0 0.0 0.0 0.0 0.0 0.0 0.0 0.0 0.0 0.0 0.0 0.0 0.0 0.0 0.0 0.0 0.0 0.0 0.0 0.1 0.4 0.7 1.3 1.4 1.3 1.4 1.3 1.2 1.7 2.0 1.8 1.5 0.7
0.0 0.0 0.0 0.0 0.0 0.0 0.0 0.0 0.0 0.0 0.0 0.0 0.0 0.0 0.0 0.0 0.0 0.0 0.0 0.0 0.2 0.2 0.0 3.3 0.4 0.0 0.0 0.1 0.1 0.1 0.3 0.1 0.7 1.1 1.4 1.4 1.5 1.6 1.4 1.9 2.6 2.5 2.2 2.3
0.0 0.0 0.0 0.0 0.0 0.0 0.0 0.0 0.0 0.0 0.0 0.0 0.0 0.0 0.0 0.1 0.1 0.1 0.1 0.2 1.7 2.1 1.1 0.9 0.4 0.2 0.6 0.4 0.3 0.4 0.5 1.0 0.0 1.5 1.1 1.3 1.9 2.5 1.9 2.9 3.1 2.7 4.8 8.6
0.0 0.0 0.0 0.0 0.0 0.0 0.0 0.0 0.0 0.0 0.0 0.0 1.0 2.6 4.0 3.9 1.6 2.0 2.1 2.4 3.7 3.7 2.4 2.1 1.5 0.9 0.9 0.6 0.3 0.4 1.0 1.1 1.4 2.0 1.7 2.9 2.0 1.8 2.8 3.0 3.0 3.8 4.7 13.8
0.0 0.0 0.0 0.0 0.0 0.0 0.0 0.1 0.2 0.6 2.4 2.6 4.8 5.1 5.6 7.1 5.7 5.6 5.2 9.0 9.6 4.4 3.4 2.2 0.4 0.5 0.4 0.2 0.2 1.0 1.9 4.1 2.0 1.3 1.7 5.3 5.3 2.6 4.9 6.3 5.5 7.6 5.0 5.8
0.1 0.0 0.0 0.1 0.1 1.1 0.9 2.6 3.5 3.9 3.7 4.3 8.7 9.9 7.0 8.5 8.4 8.6 5.2 4.0 2.8 2.9 0.9 0.7 0.6 0.3 0.3 0.2 1.4 1.0 3.1 4.5 2.7 4.2 6.2 3.4 9.4 14.3 10.0 7.7 7.6 9.9 16.2 12.1
1.5 1.9 2.3 3.6 5.9 5.8 7.0 6.8 6.0 5.9 4.5 7.6 9.3 10.8 9.9 6.2 6.8 8.7 5.1 2.8 1.7 1.2 0.5 0.2 0.5 0.7 0.3 0.4 0.5 6.2 5.6 8.5 9.2 6.1 9.5 12.7 17.2 13.2 14.3 15.7 14.3 17.3 19.9 15.4
3.3 3.8 5.4 4.7 5.4 4.1 5.3 4.6 3.7 5.1 5.0 7.7 12.0 13.8 10.1 3.4 4.9 4.3 6.0 2.3 1.4 2.0 1.7 1.8 1.1 3.0 2.4 4.8 2.0 8.4 6.5 5.4 6.8 6.5 7.4 11.7 13.6 21.2 21.9 18.9 18.3 20.6 20.1 20.1
2.8 2.9 3.4 4.6 4.3 3.6 3.2 3.6 5.9 5.3 9.3 7.9 9.1 5.6 4.2 2.6 2.6 4.3 4.2 0.5 1.3 3.8 1.5 4.0 4.6 5.3 5.6 10.2 9.8 11.1 11.5 11.4 11.3 10.7 11.4 17.7 17.6 28.6 16.5 15.6 17.9 18.5 24.8 17.0
2.3 2.1 2.5 3.2 2.5 1.4 1.4 1.6 0.9 1.3 7.1 2.6 4.0 7.2 2.3 6.3 8.6 1.5 2.1 5.7 5.8 17.8 10.8 10.5 9.0 6.1 6.6 12.4 13.2 16.2 15.3 16.8 17.5 20.2 10.4 9.2 26.3 22.5 18.9 26.6 16.8 19.0 21.0 17.9
1.7 1.6 1.7 1.5 0.8 1.5 0.6 0.6 0.7 0.7 0.6 0.8 0.6 0.5 0.8 1.7 8.2 4.3 7.2 6.9 6.6 5.6 9.3 7.9 6.4 7.2 17.3 18.6 18.7 19.7 19.6 17.3 20.4 22.9 16.2 23.1 21.5 30.2 28.1 22.9 26.6 27.1 28.1 23.6
1.1 1.5 1.3 0.7 1.1 1.4 1.6 1.5 3.1 2.4 2.8 6.7 4.3 13.6 10.3 5.4 4.9 5.0 6.9 7.0 5.1 6.3 6.6 16.6 20.6 20.2 19.1 13.3 17.3 18.1 14.2 11.5 15.3 16.7 18.7 18.5 17.8 15.3 19.1 17.5 23.8 29.4 36.4 39.4
2.0 0.9 2.1 1.8 2.1 2.3 2.5 2.0 4.6 6.3 8.0 11.4 9.7 10.0 6.3 10.1 12.9 7.6 7.8 12.0 12.9 13.0 16.3 19.8 17.1 11.5 10.5 16.6 14.9 13.4 12.5 13.8 11.1 10.4 22.4 25.9 24.9 33.3 29.3 29.0 33.4 34.9 31.9 27.9

GFSNGP_prec_sndepth_045.txt.gz
Snowfall_Accumulation
0.0 0.0 0.0 0.0 0.0 0.0 0.0 0.0 0.1 0.0 0.0 0.0 0.0 0.0 0.0 0.0 0.0 0.0 0.0 0.0 0.0 0.0 0.0 0.0 0.0 0.0 0.0 0.0 0.0 0.0 0.0 0.0 0.0 0.0 0.0 0.0 0.0 0.0 0.0 0.0 0.0 0.0 0.0 0.0
0.0 0.0 0.0 0.0 0.0 0.0 0.0 0.0 0.0 0.0 0.0 0.0 0.0 0.0 0.0 0.0 0.0 0.0 0.0 0.0 0.0 0.0 0.0 0.0 0.0 0.0 0.0 0.0 0.0 0.0 0.0 0.0 0.0 0.0 0.0 0.0 0.0 0.0 0.0 0.0 0.0 0.0 0.0 0.0
0.0 0.0 0.0 0.3 0.0 0.0 0.0 0.0 0.0 0.0 0.0 0.0 0.0 0.0 0.0 0.0 0.0 0.0 0.0 0.0 0.0 0.0 0.0 0.0 0.0 0.0 0.0 0.0 0.0 0.0 0.0 0.0 0.0 0.0 0.0 0.0 0.0 0.0 0.0 0.0 0.0 0.0 0.0 0.0
0.6 0.3 1.1 0.0 0.0 0.0 0.0 0.0 0.0 0.0 0.0 0.0 0.0 0.0 0.0 0.0 0.0 0.0 0.0 0.0 0.0 0.0 0.0 0.0 0.0 0.0 0.0 0.0 0.0 0.0 0.0 0.0 0.0 0.0 0.0 0.0 0.0 0.0 0.0 0.0 0.0 0.0 0.0 0.0
1.6 0.3 0.0 0.0 0.0 0.0 0.0 0.0 0.0 0.0 0.0 0.0 0.0 0.0 0.0 0.0 0.0 0.0 0.0 0.0 0.0 0.0 0.0 0.0 0.0 0.0 0.0 0.0 0.0 0.0 0.0 0.0 0.0 0.0 0.0 0.0 0.0 0.0 0.0 0.0 0.0 0.0 0.0 0.0
0.6 0.2 1.2 0.0 0.0 0.0 0.0 0.0 0.0 0.0 0.0 0.0 0.0 0.2 0.0 0.0 0.0 0.0 0.0 0.0 0.0 0.0 0.0 0.0 0.0 0.0 0.0 0.0 0.0 0.0 0.0 0.0 0.0 0.0 0.0 0.0 0.0 0.0 0.0 0.0 0.0 0.0 0.0 0.0
0.7 0.9 0.4 0.0 0.0 0.0 0.2 0.0 0.0 0.0 0.0 0.0 0.0 0.0 0.0 0.0 0.0 0.0 0.0 0.0 0.0 0.0 0.0 0.0 0.0 0.0 0.0 0.0 0.0 0.0 0.0 0.0 0.0 0.0 0.0 0.0 0.0 0.0 0.0 0.0 0.0 0.0 0.0 0.0
0.6 0.9 1.1 0.0 0.0 0.0 0.1 0.0 0.0 0.0 0.0 0.0 0.0 0.0 0.0 0.0 0.0 0.0 0.0 0.0 0.0 0.0 0.0 0.0 0.0 0.0 0.0 0.0 0.0 0.0 0.0 0.0 0.0 0.0 0.0 0.0 0.0 0.0 0.0 0.0 0.0 0.0 0.1 0.2
0.1 0.3 0.0 0.0 0.0 0.0 0.0 0.0 0.0 0.0 0.0 0.0 0.0 0.0 0.0 0.0 0.0 0.0 0.0 0.0 0.0 0.0 0.0 0.0 0.0 0.0 0.0 0.0 0.0 0.0 0.0 0.0 0.0 0.0 0.0 0.0 0.0 0.0 0.0 0.0 0.2 0.0 0.4 0.7
0.0 0.0 0.0 0.0 0.0 0.0 0.0 0.0 0.0 0.0 0.0 0.0 0.0 0.0 0.0 0.0 0.0 0.0 0.0 0.0 0.0 0.0 0.0 0.0 0.0 0.0 0.0 0.0 0.0 0.0 0.0 0.0 0.0 0.0 0.0 0.0 0.0 0.0 0.0 0.3 0.4 0.4 0.5 0.5
0.0 0.0 0.0 0.0 0.0 0.0 0.0 0.0 0.0 0.0 0.0 0.0 0.0 0.0 0.0 0.0 0.0 0.0 0.0 0.0 0.0 0.0 0.0 0.0 0.0 0.0 0.0 0.0 0.0 0.0 0.0 0.0 0.0 0.1 0.0 0.0 0.0 0.0 0.2 0.0 0.2 0.5 0.5 0.5
0.2 0.0 0.0 0.0 0.0 0.0 0.0 0.0 0.0 0.0 0.0 0.0 0.0 0.0 0.0 0.0 0.0 0.0 0.0 0.0 0.0 0.0 0.0 0.0 0.0 0.0 0.0 0.0 0.0 0.0 0.0 0.1 0.3 0.4 0.3 0.0 0.0 0.0 nan nan nan nan nan 2.3
0.0 0.0 0.0 0.0 0.0 0.0 0.0 0.0 0.0 0.0 0.0 0.0 0.0 0.0 0.0 0.0 0.0 nan 0.0 0.0 0.0 0.0 0.0 0.0 0.0 0.0 0.0 0.0 0.0 0.0 0.0 0.0 0.4 0.4 0.4 0.4 0.5 0.5 0.8 0.5 nan nan nan nan
0.0 0.0 0.0 0.0 0.0 0.0 0.0 0.0 0.0 0.0 0.0 0.0 0.0 0.0 0.0 0.0 0.0 0.0 0.0 0.0 0.0 0.0 0.0 0.0 0.0 0.0 0.0 0.0 0.0 0.0 0.0 0.0 0.4 0.4 0.4 0.6 0.9 0.9 0.9 1.5 2.7 2.0 nan nan
0.0 0.0 0.0 0.0 0.0 0.0 0.0 0.0 0.0 0.0 0.0 0.0 0.0 0.0 0.0 0.0 0.0 0.0 0.0 0.0 0.0 0.0 0.0 0.0 0.0 0.0 0.0 0.0 0.0 0.0 0.1 0.4 0.7 1.3 1.5 1.4 1.5 1.4 1.2 1.7 1.9 1.8 1.5 0.7
0.0 0.0 0.0 0.0 0.0 0.0 0.0 0.0 0.0 0.0 0.0 0.0 0.0 0.0 0.0 0.0 0.0 0.0 0.0 0.0 0.2 0.2 0.0 3.3 0.3 0.0 0.0 0.0 0.1 0.1 0.3 0.1 0.8 1.5 1.7 1.5 1.6 1.6 1.4 1.9 2.6 2.5 2.2 2.3
0.0 0.0 0.0 0.0 0.0 0.0 0.0 0.0 0.0 0.0 0.0 0.0 0.0 0.0 0.0 0.1 0.1 0.1 0.1 0.2 1.7 2.1 1.1 0.9 0.5 0.4 0.7 0.7 1.2 2.2 2.2 1.8 0.2 1.7 1.2 1.4 2.0 2.6 1.9 2.9 3.1 2.7 4.8 8.6
0.0 0.0 0.0 0.0 0.0 0.0 0.0 0.0 0.0 0.0 0.0 0.0 1.0 2.6 4.0 3.9 1.8 2.6 2.9 3.2 4.7 5.3 4.1 3.8 3.1 2.6 2.5 2.2 1.9 1.8 2.0 1.7 1.8 2.2 1.7 3.0 2.1 1.8 2.8 3.0 3.0 3.8 4.7 13.7
0.0 0.0 0.0 0.0 0.0 0.0 0.0 0.1 0.3 0.6 2.5 2.7 5.0 5.4 6.2 8.2 7.1 7.2 6.6 10.0 10.4 5.3 4.9 3.7 0.9 1.5 1.5 0.9 0.6 1.4 2.2 4.3 2.2 1.5 1.8 5.3 5.3 2.7 5.0 6.3 5.5 7.5 5.0 5.8
0.1 0.0 0.0 0.1 0.1 1.1 1.1 2.9 3.7 4.2 4.5 5.1 9.7 11.0 8.1 9.6 9.2 9.4 6.2 5.1 3.9 4.0 1.8 1.6 1.4 1.1 0.8 0.6 1.7 1.3 3.4 4.6 2.8 4.3 6.3 3.5 9.4 14.3 10.0 7.7 7.6 9.9 16.2 12.1
1.9 2.2 2.7 3.9 6.5 6.3 7.5 7.4 6.3 6.3 5.1 8.1 9.7 11.5 10.6 7.1 7.6 9.6 6.0 3.6 2.8 2.0 1.2 0.5 1.1 1.3 0.5 0.4 0.6 6.4 5.9 8.8 9.3 6.3 9.6 12.7 17.2 13.2 14.3 15.7 14.3 17.3 19.9 15.5
3.5 4.0 5.7 5.0 5.5 4.5 5.8 5.1 4.0 5.4 5.4 8.1 12.4 14.2 10.4 4.0 5.5 4.9 6.6 2.7 2.0 2.2 2.1 2.1 1.3 3.2 2.7 4.9 2.1 8.4 6.5 5.4 6.8 6.5 7.4 11.7 13.6 21.2 21.9 18.9 18.3 20.6 20.0 20.1
3.1 3.1 3.6 4.7 4.5 4.1 3.4 3.7 6.1 5.4 9.6 8.2 9.5 5.9 4.5 3.1 3.1 4.6 4.7 1.0 1.6 3.9 1.7 4.1 4.6 5.3 5.6 10.3 9.8 11.1 11.5 11.4 11.3 10.7 11.4 17.7 17.7 28.6 16.5 15.6 17.9 18.5 24.7 17.0
2.7 2.3 2.8 3.5 2.7 1.4 1.5 1.9 1.1 1.5 7.3 2.7 4.2 7.5 2.6 6.4 8.8 1.7 2.3 5.7 5.8 17.7 10.8 10.5 9.0 6.1 6.6 12.5 13.2 16.2 15.3 16.8 17.5 20.3 10.4 9.2 26.2 22.4 18.9 26.5 16.8 19.1 21.1 17.9
1.7 1.6 1.7 1.5 0.8 1.6 0.6 0.7 0.9 0.7 0.6 0.8 0.6 0.5 0.7 1.7 8.3 4.4 7.2 6.9 6.6 5.7 9.3 7.9 6.4 7.2 17.3 18.7 18.7 19.7 19.5 17.3 20.5 23.0 16.3 23.2 21.5 30.1 28.0 22.9 26.6 27.1 28.1 23.6
1.0 1.5 1.2 0.7 1.1 1.4 1.6 1.5 3.1 2.4 2.9 6.7 4.3 13.6 10.2 5.4 4.9 5.2 7.0 7.0 5.1 6.3 6.6 16.7 20.6 20.2 19.1 13.2 17.3 18.1 14.2 11.5 15.3 16.7 18.7 18.5 17.8 15.3 19.1 17.5 23.8 29.3 36.3 39.2
2.0 0.9 2.0 1.8 2.1 2.3 2.5 2.0 4.6 6.3 8.0 11.4 9.8 10.0 6.3 10.1 12.8 7.6 7.8 12.0 12.9 13.0 16.3 19.8 17.1 11.5 10.5 16.6 15.0 13.4 12.5 13.8 11.1 10.4 22.3 25.9 24.8 33.2 29.3 28.9 33.3 34.8 31.8 27.8

GFSNGP_prec_sndepth_048.txt.gz
Snowfall_Accumulation
0.0 0.0 0.0 0.0 0.0 0.0 0.0 0.0 0.1 0.0 0.0 0.0 0.0 0.0 0.0 0.0 0.0 0.0 0.0 0.0 0.0 0.0 0.0 0.0 0.0 0.0 0.0 0.0 0.0 0.0 0.0 0.0 0.0 0.0 0.0 0.0 0.0 0.0 0.0 0.0 0.0 0.0 0.0 0.0
0.0 0.0 0.0 0.0 0.0 0.0 0.0 0.0 0.0 0.0 0.0 0.0 0.0 0.0 0.0 0.0 0.0 0.0 0.0 0.0 0.0 0.0 0.0 0.0 0.0 0.0 0.0 0.0 0.0 0.0 0.0 0.0 0.0 0.0 0.0 0.0 0.0 0.0 0.0 0.0 0.0 0.0 0.0 0.0
0.0 0.0 0.0 0.3 0.0 0.0 0.0 0.0 0.0 0.0 0.0 0.0 0.0 0.0 0.0 0.0 0.0 0.0 0.0 0.0 0.0 0.0 0.0 0.0 0.0 0.0 0.0 0.0 0.0 0.0 0.0 0.0 0.0 0.0 0.0 0.0 0.0 0.0 0.0 0.0 0.0 0.0 0.0 0.0
0.6 0.3 1.1 0.0 0.0 0.0 0.0 0.0 0.0 0.0 0.0 0.0 0.0 0.0 0.0 0.0 0.0 0.0 0.0 0.0 0.0 0.0 0.0 0.0 0.0 0.0 0.0 0.0 0.0 0.0 0.0 0.0 0.0 0.0 0.0 0.0 0.0 0.0 0.0 0.0 0.0 0.0 0.0 0.0
2.0 0.4 0.0 0.0 0.0 0.0 0.0 0.0 0.0 0.0 0.0 0.0 0.0 0.0 0.0 0.0 0.0 0.0 0.0 0.0 0.0 0.0 0.0 0.0 0.0 0.0 0.0 0.0 0.0 0.0 0.0 0.0 0.0 0.0 0.0 0.0 0.0 0.0 0.0 0.0 0.0 0.0 0.0 0.0
1.1 1.1 1.5 0.0 0.0 0.0 0.0 0.0 0.0 0.0 0.0 0.0 0.0 0.2 0.0 0.0 0.0 0.0 0.0 0.0 0.0 0.0 0.0 0.0 0.0 0.0 0.0 0.0 0.0 0.0 0.0 0.0 0.0 0.0 0.0 0.0 0.0 0.0 0.0 0.0 0.0 0.0 0.0 0.0
1.4 1.5 0.4 0.0 0.0 0.0 0.2 0.0 0.0 0.0 0.0 0.0 0.0 0.0 0.0 0.0 0.0 0.0 0.0 0.0 0.0 0.0 0.0 0.0 0.0 0.0 0.0 0.0 0.0 0.0 0.0 0.0 0.0 0.0 0.0 0.0 0.0 0.0 0.0 0.0 0.0 0.0 0.0 0.0
0.6 1.7 1.8 0.0 0.0 0.0 0.1 0.0 0.0 0.0 0.0 0.0 0.0 0.0 0.0 0.0 0.0 0.0 0.0 0.0 0.0 0.0 0.0 0.0 0.0 0.0 0.0 0.0 0.0 0.0 0.0 0.0 0.0 0.0 0.0 0.0 0.0 0.0 0.0 0.0 0.0 0.0 0.1 0.2
0.0 0.3 0.0 0.0 0.0 0.0 0.0 0.0 0.0 0.0 0.0 0.0 0.0 0.0 0.0 0.0 0.0 0.0 0.0 0.0 0.0 0.0 0.0 0.0 0.0 0.0 0.0 0.0 0.0 0.0 0.0 0.0 0.0 0.0 0.0 0.0 0.0 0.0 0.0 0.0 0.2 0.1 0.4 0.7
0.0 0.0 0.0 0.0 0.0 0.0 0.0 0.0 0.0 0.0 0.0 0.0 0.0 0.0 0.0 0.0 0.0 0.0 0.0 0.0 0.0 0.0 0.0 0.0 0.0 0.0 0.0 0.0 0.0 0.0 0.0 0.0 0.0 0.0 0.0 0.0 0.0 0.0 0.0 0.3 0.4 0.4 0.5 0.5
0.0 0.0 0.0 0.0 0.0 0.0 0.0 0.0 0.0 0.0 0.0 0.0 0.0 0.0 0.0 0.0 0.0 0.0 0.0 0.0 0.0 0.0 0.0 0.0 0.0 0.0 0.0 0.0 0.0 0.0 0.0 0.0 0.0 0.1 0.0 0.0 0.0 0.0 0.2 0.0 0.2 0.5 0.5 0.5
0.2 0.0 0.0 0.0 0.0 0.0 0.0 0.0 0.0 0.0 0.0 0.0 0.0 0.0 0.0 0.0 0.0 0.0 0.0 0.0 0.0 0.0 0.0 0.0 0.0 0.0 0.0 0.0 0.0 0.0 0.0 0.1 0.3 0.4 0.3 0.0 0.0 0.0 nan nan nan nan nan 2.3
0.0 0.0 0.0 0.0 0.0 0.0 0.0 0.0 0.0 0.0 0.0 0.0 0.0 0.0 0.0 0.0 0.0 nan 0.0 0.0 0.0 0.0 0.0 0.0 0.0 0.0 0.0 0.0 0.0 0.0 0.0 0.0 0.4 0.3 0.4 0.4 0.5 0.5 0.7 0.5 nan nan nan nan
0.0 0.0 0.0 0.0 0.0 0.0 0.0 0.0 0.0 0.0 0.0 0.0 0.0 0.0 0.0 0.0 0.0 0.0 0.0 0.0 0.0 0.0 0.0 0.0 0.0 0.0 0.0 0.0 0.0 0.0 0.0 0.0 0.4 0.4 0.4 0.6 0.9 0.9 0.9 1.5 2.8 2.0 nan nan
0.0 0.0 0.0 0.0 0.0 0.0 0.0 0.0 0.0 0.0 0.0 0.0 0.0 0.0 0.0 0.0 0.0 0.0 0.0 0.0 0.0 0.0 0.0 0.0 0.0 0.0 0.0 0.0 0.0 0.0 0.1 0.4 0.7 1.3 1.5 1.5 1.6 1.6 1.6 2.1 2.3 2.0 1.5 0.7
0.0 0.0 0.0 0.0 0.0 0.0 0.0 0.0 0.0 0.0 0.0 0.0 0.0 0.0 0.0 0.0 0.0 0.0 0.0 0.0 0.2 0.2 0.0 3.3 0.3 0.0 0.1 0.2 0.3 0.8 1.1 0.3 1.1 2.1 3.0 2.5 2.3 2.1 1.7 2.0 2.6 2.5 2.3 2.4
0.0 0.0 0.0 0.0 0.0 0.0 0.0 0.0 0.0 0.0 0.0 0.0 0.0 0.0 0.0 0.1 0.1 0.1 0.1 0.2 1.7 2.2 1.4 3.1 3.1 2.4 2.1 1.6 1.9 3.1 3.5 3.0 0.6 2.8 2.2 2.1 2.5 3.0 2.4 3.3 3.5 3.0 4.9 8.7
0.2 0.2 0.2 0.1 0.0 0.0 0.1 0.0 0.0 0.0 0.0 0.0 1.0 2.6 4.0 3.9 1.8 2.7 3.7 4.5 6.7 7.5 6.1 5.5 4.4 3.6 3.4 3.0 2.6 2.6 2.9 2.7 2.7 2.9 2.4 3.7 2.7 2.2 3.1 3.3 3.3 4.0 4.9 13.9
0.1 0.1 0.1 0.0 0.0 0.0 0.1 0.2 0.3 0.7 2.7 2.9 5.2 6.0 7.1 9.4 8.7 9.1 8.4 11.4 11.7 6.1 6.0 4.1 1.0 1.6 1.8 1.3 0.9 1.9 2.7 4.9 2.6 1.9 2.2 5.5 5.7 3.1 5.4 6.7 5.7 7.8 5.2 5.9
0.4 0.2 0.2 0.3 0.2 1.2 1.2 3.2 3.9 4.5 5.1 5.4 10.0 11.5 8.9 10.9 10.7 10.8 7.1 6.0 4.8 4.9 2.5 2.2 1.8 1.5 1.3 0.9 1.8 1.6 3.7 4.9 3.1 4.7 6.5 3.8 9.7 14.6 10.1 7.7 7.7 10.0 16.2 12.2
2.5 2.7 3.2 4.3 6.9 6.7 7.8 7.7 6.4 6.5 5.6 8.3 9.8 11.8 10.9 7.6 8.1 10.0 6.4 3.8 3.5 2.5 1.6 0.7 1.5 1.6 0.8 0.7 0.8 6.7 6.1 9.0 9.6 6.5 9.7 12.8 17.2 13.3 14.3 15.7 14.3 17.4 20.0 15.4
4.1 4.4 6.1 5.3 5.7 4.7 6.1 5.3 4.1 5.5 5.5 8.3 12.6 14.4 10.5 4.3 5.7 5.2 6.9 3.0 2.6 2.3 2.4 2.5 1.7 3.3 2.8 4.9 2.1 8.4 6.5 5.4 6.8 6.5 7.4 11.7 13.6 21.2 21.9 18.9 18.3 20.6 20.0 20.1
3.6 3.6 4.0 5.0 4.7 4.5 3.5 3.8 6.2 5.5 9.6 8.3 9.5 6.0 4.6 3.3 3.2 4.7 4.9 1.3 1.7 4.0 1.7 4.1 4.6 5.3 5.6 10.2 9.8 11.1 11.5 11.4 11.3 10.8 11.4 17.7 17.6 28.6 16.5 15.7 18.0 18.6 24.7 17.0
2.9 2.5 2.9 3.6 2.7 1.4 1.5 1.9 1.1 1.5 7.3 2.7 4.3 7.5 2.6 6.4 8.9 1.7 2.3 5.7 5.8 17.7 10.8 10.5 9.0 6.1 6.6 12.4 13.1 16.2 15.2 16.8 17.5 20.2 10.4 9.2 26.1 22.4 18.9 26.5 16.8 19.1 21.1 18.0
1.7 1.6 1.7 1.5 0.8 1.7 0.6 0.7 0.9 0.7 0.6 0.9 0.6 0.5 0.8 1.8 8.3 4.4 7.2 7.0 6.6 5.7 9.4 7.9 6.4 7.2 17.3 18.6 18.7 19.7 19.5 17.3 20.5 22.9 16.3 23.2 21.4 30.1 27.9 22.8 26.6 27.1 28.0 23.6
1.0 1.5 1.2 0.7 1.1 1.4 1.6 1.5 3.1 2.6 2.9 6.8 4.4 13.6 10.3 5.5 5.0 5.2 7.0 7.0 5.1 6.3 6.7 16.7 20.6 20.2 19.1 13.2 17.3 18.1 14.2 11.5 15.3 16.7 18.6 18.5 17.8 15.3 19.1 17.5 23.8 29.2 36.2 39.1
1.9 0.9 2.0 1.8 2.1 2.3 2.5 2.0 4.6 6.4 8.0 11.4 9.8 10.0 6.3 10.1 12.9 7.6 7.8 12.0 12.9 13.0 16.3 19.8 17.1 11.5 10.5 16.6 14.9 13.4 12.5 13.8 11.1 10.4 22.3 25.8 24.8 33.1 29.2 28.9 33.2 34.7 31.7 27.8

GFSNGP_prec_sndepth_051.txt.gz
Snowfall_Accumulation
0.0 0.0 0.0 0.0 0.0 0.0 0.0 0.0 0.1 0.0 0.0 0.0 0.0 0.0 0.0 0.0 0.0 0.0 0.0 0.0 0.0 0.0 0.0 0.0 0.0 0.0 0.0 0.0 0.0 0.0 0.0 0.0 0.0 0.0 0.0 0.0 0.0 0.0 0.0 0.0 0.0 0.0 0.0 0.0
0.0 0.0 0.0 0.0 0.0 0.0 0.0 0.0 0.0 0.0 0.0 0.0 0.0 0.0 0.0 0.0 0.0 0.0 0.0 0.0 0.0 0.0 0.0 0.0 0.0 0.0 0.0 0.0 0.0 0.0 0.0 0.0 0.0 0.0 0.0 0.0 0.0 0.0 0.0 0.0 0.0 0.0 0.0 0.0
0.1 0.0 0.0 0.3 0.0 0.0 0.0 0.0 0.0 0.0 0.0 0.0 0.0 0.0 0.0 0.0 0.0 0.0 0.0 0.0 0.0 0.0 0.0 0.0 0.0 0.0 0.0 0.0 0.0 0.0 0.0 0.0 0.0 0.0 0.0 0.0 0.0 0.0 0.0 0.0 0.0 0.0 0.0 0.0
1.0 0.4 1.4 0.0 0.0 0.0 0.0 0.0 0.0 0.0 0.0 0.0 0.0 0.0 0.0 0.0 0.0 0.0 0.0 0.0 0.0 0.0 0.0 0.0 0.0 0.0 0.0 0.0 0.0 0.0 0.0 0.0 0.0 0.0 0.0 0.0 0.0 0.0 0.0 0.0 0.0 0.0 0.0 0.0
2.5 0.9 0.1 0.0 0.0 0.0 0.0 0.0 0.0 0.0 0.0 0.0 0.0 0.0 0.0 0.0 0.0 0.0 0.0 0.0 0.0 0.0 0.0 0.0 0.0 0.0 0.0 0.0 0.0 0.0 0.0 0.0 0.0 0.0 0.0 0.0 0.0 0.0 0.0 0.0 0.0 0.0 0.0 0.0
1.2 1.4 2.1 0.0 0.0 0.0 0.0 0.0 0.0 0.0 0.0 0.0 0.0 0.2 0.0 0.0 0.0 0.0 0.0 0.0 0.0 0.0 0.0 0.0 0.0 0.0 0.0 0.0 0.0 0.0 0.0 0.0 0.0 0.0 0.0 0.0 0.0 0.0 0.0 0.0 0.0 0.0 0.0 0.0
1.4 1.6 0.5 0.0 0.0 0.0 0.2 0.0 0.0 0.0 0.0 0.0 0.0 0.0 0.0 0.0 0.0 0.0 0.0 0.0 0.0 0.0 0.0 0.0 0.0 0.0 0.0 0.0 0.0 0.0 0.0 0.0 0.0 0.0 0.0 0.0 0.0 0.0 0.0 0.0 0.0 0.0 0.0 0.0
0.6 1.7 1.8 0.0 0.0 0.1 0.1 0.0 0.0 0.0 0.0 0.0 0.0 0.0 0.0 0.0 0.0 0.0 0.0 0.0 0.0 0.0 0.0 0.0 0.0 0.0 0.0 0.0 0.0 0.0 0.0 0.0 0.0 0.0 0.0 0.0 0.0 0.0 0.0 0.0 0.0 0.0 0.1 0.2
0.1 0.3 0.0 0.0 0.0 0.0 0.0 0.0 0.0 0.0 0.0 0.0 0.0 0.0 0.0 0.0 0.0 0.0 0.0 0.0 0.0 0.0 0.0 0.0 0.0 0.0 0.0 0.0 0.0 0.0 0.0 0.0 0.0 0.0 0.0 0.0 0.0 0.0 0.0 0.0 0.2 0.1 0.4 0.7
0.0 0.0 0.0 0.0 0.0 0.0 0.0 0.0 0.0 0.0 0.0 0.0 0.0 0.0 0.0 0.0 0.0 0.0 0.0 0.0 0.0 0.0 0.0 0.0 0.0 0.0 0.0 0.0 0.0 0.0 0.0 0.0 0.0 0.0 0.0 0.0 0.0 0.0 0.0 0.3 0.4 0.4 0.5 0.5
0.0 0.0 0.0 0.0 0.0 0.0 0.0 0.0 0.0 0.0 0.0 0.0 0.0 0.0 0.0 0.0 0.0 0.0 0.0 0.0 0.0 0.0 0.0 0.0 0.0 0.0 0.0 0.0 0.0 0.0 0.0 0.0 0.0 0.1 0.0 0.0 0.0 0.0 0.2 0.0 0.2 0.5 0.5 0.5
0.3 0.0 0.0 0.0 0.0 0.0 0.0 0.0 0.0 0.0 0.0 0.0 0.0 0.0 0.0 0.0 0.0 0.0 0.0 0.0 0.0 0.0 0.0 0.0 0.0 0.0 0.0 0.0 0.0 0.0 0.0 0.1 0.3 0.4 0.3 0.0 0.0 0.0 nan nan nan nan nan 2.3
0.0 0.0 0.0 0.0 0.0 0.0 0.0 0.0 0.0 0.0 0.0 0.0 0.0 0.0 0.0 0.0 0.0 nan 0.0 0.0 0.0 0.0 0.0 0.0 0.0 0.0 0.0 0.0 0.0 0.0 0.0 0.0 0.4 0.3 0.4 0.4 0.5 0.5 0.7 0.5 nan nan nan nan
0.0 0.0 0.0 0.0 0.0 0.0 0.0 0.0 0.0 0.0 0.0 0.0 0.0 0.0 0.0 0.0 0.0 0.0 0.0 0.0 0.0 0.0 0.0 0.0 0.0 0.0 0.0 0.0 0.0 0.0 0.0 0.0 0.4 0.4 0.4 0.6 0.9 0.9 0.9 1.5 2.9 2.2 nan nan
0.0 0.0 0.0 0.0 0.0 0.0 0.0 0.0 0.0 0.0 0.0 0.0 0.0 0.0 0.0 0.0 0.0 0.0 0.0 0.0 0.0 0.0 0.0 0.0 0.0 0.0 0.0 0.0 0.0 0.0 0.1 0.4 0.8 1.6 1.9 1.7 2.0 2.1 2.1 2.7 2.8 2.6 2.1 0.9
0.0 0.0 0.0 0.0 0.0 0.0 0.0 0.0 0.0 0.0 0.0 0.0 0.0 0.0 0.0 0.0 0.0 0.0 0.0 0.0 0.2 0.3 0.1 3.3 0.5 0.5 0.4 0.5 1.3 2.4 2.6 0.8 1.6 2.7 3.6 3.2 3.0 2.8 2.5 2.8 3.2 3.1 3.0 3.1
0.0 0.0 0.0 0.0 0.0 0.0 0.0 0.0 0.0 0.0 0.0 0.0 0.0 0.0 0.0 0.1 0.1 0.1 0.2 0.6 2.1 2.5 1.7 3.9 4.6 3.9 3.4 2.7 2.6 3.8 4.0 3.4 0.7 3.3 2.8 2.7 3.1 3.5 2.9 3.9 4.1 3.5 5.5 9.2
0.2 0.2 0.4 0.4 0.7 0.7 0.3 0.1 0.1 0.1 0.1 0.0 1.0 2.5 4.0 3.9 1.9 3.0 4.2 5.1 7.3 8.5 7.5 7.1 5.9 4.8 4.2 3.5 2.9 2.9 3.2 3.0 3.1 3.3 2.8 4.1 3.0 2.5 3.5 3.7 3.6 4.4 5.3 14.3
0.2 0.2 0.6 0.7 0.5 0.2 0.2 0.3 0.4 0.8 2.9 3.3 5.4 6.5 7.9 10.4 9.9 10.5 9.9 12.7 13.0 7.2 7.6 5.1 1.2 2.1 2.4 1.8 1.1 2.2 3.0 5.1 2.9 2.2 2.4 5.6 6.0 3.4 5.7 7.0 6.0 8.1 5.5 6.3
0.7 0.4 0.3 0.5 0.4 1.3 1.4 3.6 4.3 4.8 5.8 6.0 10.6 12.0 9.5 11.8 11.6 11.5 7.7 6.8 5.8 6.1 3.4 3.0 2.4 2.0 1.7 1.1 1.9 1.7 3.8 5.0 3.3 4.8 6.7 4.0 9.9 14.9 10.5 7.8 8.0 10.2 16.3 12.2
2.7 2.8 3.3 4.4 7.2 6.9 8.1 8.1 6.5 6.8 6.2 8.7 10.0 12.2 11.4 8.2 8.5 10.4 6.6 4.0 4.2 2.8 1.8 0.7 1.6 1.8 0.9 0.8 0.9 6.8 6.1 9.0 9.6 6.5 9.7 12.8 17.2 13.3 14.3 15.7 14.3 17.4 19.9 15.4
4.4 4.6 6.4 5.4 5.8 4.9 6.4 5.5 4.3 5.7 5.7 8.4 12.8 14.6 10.6 4.6 6.0 5.4 7.1 3.1 3.0 2.3 2.5 2.5 1.7 3.3 2.8 4.9 2.1 8.4 6.5 5.4 6.8 6.5 7.4 11.7 13.6 21.2 21.8 18.8 18.3 20.6 20.0 20.1
4.0 3.9 4.2 5.1 4.9 4.8 3.6 3.9 6.4 5.5 9.6 8.3 9.6 6.0 4.6 3.4 3.2 4.7 5.0 1.3 1.7 4.0 1.7 4.1 4.6 5.3 5.6 10.2 9.8 11.1 11.5 11.4 11.3 10.8 11.4 17.7 17.6 28.5 16.5 15.7 18.0 18.6 24.7 17.1
3.3 2.6 2.9 3.6 2.6 1.4 1.5 1.9 1.1 1.5 7.3 2.7 4.3 7.5 2.6 6.4 9.0 1.8 2.3 5.7 5.8 17.7 10.8 10.5 9.0 6.1 6.6 12.4 13.1 16.2 15.2 16.8 17.5 20.2 10.5 9.2 26.1 22.4 18.9 26.4 16.8 19.1 21.1 18.0
1.7 1.5 1.7 1.4 0.8 1.7 0.6 0.7 0.9 0.7 0.6 0.9 0.6 0.6 0.8 1.8 8.4 4.6 7.3 7.0 6.6 5.7 9.4 7.9 6.4 7.2 17.3 18.6 18.6 19.6 19.5 17.3 20.5 22.9 16.3 23.2 21.4 30.0 27.9 22.8 26.5 27.1 28.0 23.5
1.0 1.4 1.2 0.7 1.1 1.4 1.6 1.5 3.2 2.6 2.9 6.8 4.5 13.7 10.3 5.5 5.0 5.2 7.0 7.0 5.1 6.3 6.7 16.7 20.6 20.2 19.1 13.2 17.3 18.1 14.2 11.5 15.3 16.7 18.6 18.5 17.8 15.3 19.1 17.5 23.8 29.2 36.1 39.0
1.9 0.9 2.0 1.8 2.1 2.3 2.5 2.0 4.6 6.4 8.0 11.4 9.9 10.1 6.3 10.1 12.9 7.7 7.8 12.0 12.9 13.0 16.3 19.7 17.0 11.5 10.5 16.5 14.9 13.4 12.5 13.8 11.1 10.4 22.3 25.8 24.7 33.0 29.2 28.8 33.1 34.6 31.7 27.7

GFSNGP_prec_sndepth_057.txt.gz
Snowfall_Accumulation
0.0 0.0 0.0 0.0 0.0 0.0 0.0 0.0 0.1 0.0 0.0 0.0 0.0 0.0 0.0 0.0 0.0 0.0 0.0 0.0 0.0 0.0 0.0 0.0 0.0 0.0 0.0 0.0 0.0 0.0 0.0 0.0 0.0 0.0 0.0 0.0 0.0 0.0 0.0 0.0 0.0 0.0 0.0 0.0
0.0 0.0 0.0 0.0 0.0 0.0 0.0 0.0 0.0 0.0 0.0 0.0 0.0 0.0 0.0 0.0 0.0 0.0 0.0 0.0 0.0 0.0 0.0 0.0 0.0 0.0 0.0 0.0 0.0 0.0 0.0 0.0 0.0 0.0 0.0 0.0 0.0 0.0 0.0 0.0 0.0 0.0 0.0 0.0
0.1 0.0 0.0 0.2 0.0 0.0 0.0 0.0 0.0 0.0 0.0 0.0 0.0 0.0 0.0 0.0 0.0 0.0 0.0 0.0 0.0 0.0 0.0 0.0 0.0 0.0 0.0 0.0 0.0 0.0 0.0 0.0 0.0 0.0 0.0 0.0 0.0 0.0 0.0 0.0 0.0 0.0 0.0 0.0
0.9 0.4 1.6 0.0 0.0 0.0 0.0 0.0 0.0 0.0 0.0 0.0 0.0 0.0 0.0 0.0 0.0 0.0 0.0 0.0 0.0 0.0 0.0 0.0 0.0 0.0 0.0 0.0 0.0 0.0 0.0 0.0 0.0 0.0 0.0 0.0 0.0 0.0 0.0 0.0 0.0 0.0 0.0 0.0
2.5 0.9 0.1 0.0 0.0 0.0 0.0 0.0 0.0 0.0 0.0 0.0 0.0 0.0 0.0 0.0 0.0 0.0 0.0 0.0 0.0 0.0 0.0 0.0 0.0 0.0 0.0 0.0 0.0 0.0 0.0 0.0 0.0 0.0 0.0 0.0 0.0 0.0 0.0 0.0 0.0 0.0 0.0 0.0
1.2 1.4 2.1 0.0 0.0 0.0 0.0 0.0 0.0 0.0 0.0 0.0 0.0 0.1 0.0 0.0 0.0 0.0 0.0 0.0 0.0 0.0 0.0 0.0 0.0 0.0 0.0 0.0 0.0 0.0 0.0 0.0 0.0 0.0 0.0 0.0 0.0 0.0 0.0 0.0 0.0 0.0 0.0 0.0
1.5 1.8 0.5 0.0 0.0 0.0 0.3 0.0 0.0 0.0 0.0 0.0 0.0 0.0 0.0 0.0 0.0 0.0 0.0 0.0 0.0 0.0 0.0 0.0 0.0 0.0 0.0 0.0 0.0 0.0 0.0 0.0 0.0 0.0 0.0 0.0 0.0 0.0 0.0 0.0 0.0 0.0 0.0 0.0
0.7 1.7 1.9 0.0 0.0 0.1 0.1 0.0 0.0 0.0 0.0 0.0 0.0 0.0 0.0 0.0 0.0 0.0 0.0 0.0 0.0 0.0 0.0 0.0 0.0 0.0 0.0 0.0 0.0 0.0 0.0 0.0 0.0 0.0 0.0 0.0 0.0 0.0 0.0 0.0 0.0 0.0 0.2 0.2
0.1 0.3 0.0 0.0 0.0 0.0 0.0 0.0 0.0 0.0 0.0 0.0 0.0 0.0 0.0 0.0 0.0 0.0 0.0 0.0 0.0 0.0 0.0 0.0 0.0 0.0 0.0 0.0 0.0 0.0 0.0 0.0 0.0 0.0 0.0 0.0 0.0 0.0 0.0 0.0 0.2 0.1 0.5 0.8
0.0 0.0 0.0 0.0 0.0 0.0 0.0 0.0 0.0 0.0 0.0 0.0 0.0 0.0 0.0 0.0 0.0 0.0 0.0 0.0 0.0 0.0 0.0 0.0 0.0 0.0 0.0 0.0 0.0 0.0 0.0 0.0 0.0 0.0 0.0 0.0 0.0 0.0 0.0 0.2 0.4 0.4 0.6 0.5
0.0 0.0 0.0 0.0 0.0 0.0 0.0 0.0 0.0 0.0 0.0 0.0 0.0 0.0 0.0 0.0 0.0 0.0 0.0 0.0 0.0 0.0 0.0 0.0 0.0 0.0 0.0 0.0 0.0 0.0 0.0 0.0 0.0 0.1 0.0 0.0 0.0 0.0 0.2 0.0 0.2 0.5 0.5 0.5
0.3 0.0 0.0 0.0 0.0 0.0 0.0 0.0 0.0 0.0 0.0 0.0 0.0 0.0 0.0 0.0 0.0 0.0 0.0 0.0 0.0 0.0 0.0 0.0 0.0 0.0 0.0 0.0 0.0 0.0 0.0 0.1 0.2 0.3 0.3 0.0 0.0 0.0 nan nan nan nan nan 2.2
0.0 0.0 0.0 0.0 0.0 0.0 0.0 0.0 0.0 0.0 0.0 0.0 0.0 0.0 0.1 0.0 0.0 nan 0.0 0.0 0.0 0.0 0.0 0.0 0.0 0.0 0.0 0.0 0.0 0.0 0.0 0.0 0.4 0.4 0.6 0.5 0.6 0.8 1.1 1.3 nan nan nan nan
0.0 0.0 0.0 0.0 0.0 0.0 0.0 0.0 0.0 0.0 0.0 0.0 0.0 0.0 0.0 0.0 0.0 0.0 0.0 0.0 0.0 0.0 0.1 0.1 0.2 0.4 0.5 0.5 0.3 0.2 0.1 0.3 1.0 1.1 1.1 1.5 1.8 2.1 2.0 2.5 3.7 3.0 nan nan
0.0 0.0 0.0 0.0 0.0 0.0 0.0 0.0 0.0 0.0 0.0 0.0 0.0 0.0 0.0 0.0 0.0 0.0 0.0 0.0 0.0 0.0 0.2 0.2 0.3 0.6 0.7 0.9 1.5 2.0 2.1 2.1 2.4 3.4 3.7 3.1 2.9 3.0 2.9 3.8 4.0 3.9 3.4 1.8
0.0 0.0 0.0 0.2 0.4 0.5 0.5 0.6 1.1 0.8 1.5 2.0 1.6 0.8 0.1 0.0 0.1 0.1 0.1 0.0 0.3 1.0 1.2 4.7 2.2 3.3 2.7 2.3 3.0 4.0 4.2 1.6 2.5 3.7 4.6 4.3 4.1 3.8 3.5 3.8 4.2 4.1 4.0 4.1
0.0 0.1 0.1 0.2 0.3 0.4 0.4 0.6 0.5 0.3 0.2 0.3 0.4 0.2 0.1 0.1 0.1 0.3 0.9 1.4 3.1 4.4 4.4 5.7 7.3 6.2 5.4 4.4 4.0 5.3 5.4 4.6 1.1 4.2 3.7 3.5 3.8 4.2 3.5 4.5 4.8 4.1 6.2 9.8
0.6 1.1 1.2 1.0 1.4 1.5 1.2 0.6 0.4 0.4 0.4 0.6 1.5 2.7 4.2 4.0 2.3 3.7 5.2 6.1 7.9 9.1 8.3 8.3 6.9 5.8 5.4 4.6 3.5 3.5 3.7 3.5 3.4 3.6 3.1 4.3 3.3 2.7 3.7 3.8 3.8 4.6 5.7 14.6
0.3 0.5 0.9 0.9 1.1 0.9 0.8 0.9 0.9 1.2 3.4 3.9 5.7 7.0 8.5 11.1 10.6 11.5 11.0 13.3 13.7 7.7 9.5 6.2 1.5 2.5 2.9 2.3 1.3 2.4 3.2 5.3 3.0 2.3 2.6 5.6 6.0 3.4 5.8 7.1 6.2 8.3 5.7 6.4
1.7 1.4 1.4 1.4 1.1 1.8 1.9 4.2 4.7 5.2 6.7 6.5 11.1 12.5 10.0 12.7 12.6 12.4 8.4 7.6 6.9 7.5 4.1 3.5 2.7 2.2 1.9 1.1 1.9 1.7 3.8 5.1 3.3 4.9 6.8 4.1 10.0 14.9 10.5 7.8 8.0 10.2 16.2 12.2
3.4 3.6 4.3 5.1 8.0 7.6 8.7 9.0 7.2 7.4 7.2 9.5 10.4 12.9 12.0 9.1 9.0 10.6 6.7 4.1 4.8 3.1 2.0 0.8 1.6 1.8 0.9 0.8 0.9 6.7 6.1 9.0 9.6 6.5 9.7 12.7 17.1 13.2 14.2 15.7 14.3 17.3 19.9 15.4
5.3 5.5 7.3 6.4 6.5 5.6 7.2 6.1 4.7 6.0 6.0 8.7 12.9 14.6 10.6 4.6 6.0 5.4 7.1 3.2 3.0 2.3 2.4 2.5 1.7 3.3 2.8 4.9 2.0 8.4 6.5 5.4 6.8 6.5 7.4 11.7 13.6 21.1 21.8 18.8 18.2 20.6 20.0 20.1
4.8 4.6 4.9 5.7 5.4 5.4 3.7 3.9 6.4 5.5 9.6 8.3 9.6 6.0 4.7 3.4 3.2 4.6 5.0 1.3 1.7 4.0 1.7 4.1 4.6 5.3 5.6 10.2 9.8 11.1 11.5 11.4 11.3 10.8 11.4 17.6 17.6 28.4 16.4 15.7 17.9 18.5 24.6 17.0
4.1 3.4 3.4 3.7 2.6 1.3 1.5 2.0 1.1 1.5 7.3 2.7 4.3 7.5 2.6 6.4 9.1 1.8 2.3 5.7 5.8 17.7 10.8 10.5 9.0 6.1 6.6 12.4 13.1 16.2 15.2 16.7 17.4 20.2 10.4 9.2 26.0 22.3 18.8 26.3 16.7 19.0 21.0 17.9
1.9 1.5 1.6 1.4 0.8 1.8 0.6 0.7 0.9 0.7 0.6 0.9 0.7 0.6 0.8 1.8 8.4 4.8 7.3 7.0 6.6 5.7 9.4 7.9 6.4 7.2 17.3 18.6 18.6 19.6 19.5 17.2 20.4 22.8 16.2 23.1 21.4 29.9 27.8 22.7 26.4 26.9 27.8 23.4
0.9 1.4 1.2 0.7 1.1 1.4 1.6 1.5 3.2 2.6 2.9 6.8 4.6 13.8 10.4 5.5 5.0 5.2 7.0 7.0 5.1 6.3 6.7 16.7 20.5 20.2 19.1 13.2 17.3 18.1 14.2 11.5 15.3 16.6 18.6 18.4 17.7 15.3 19.0 17.4 23.6 29.0 35.8 38.7
1.9 0.9 2.0 1.8 2.1 2.3 2.4 2.0 4.6 6.4 8.0 11.4 9.9 10.2 6.3 10.1 12.8 7.6 7.8 11.9 12.9 13.0 16.2 19.7 17.0 11.5 10.5 16.5 14.9 13.4 12.5 13.7 11.1 10.4 22.2 25.7 24.6 32.8 29.0 28.7 32.9 34.4 31.5 27.6

GFSNGP_prec_sndepth_060.txt.gz
Snowfall_Accumulation
0.0 0.0 0.0 0.0 0.0 0.0 0.0 0.0 0.1 0.0 0.0 0.0 0.0 0.0 0.0 0.0 0.0 0.0 0.0 0.0 0.0 0.0 0.0 0.0 0.0 0.0 0.0 0.0 0.0 0.0 0.0 0.0 0.0 0.0 0.0 0.0 0.0 0.0 0.0 0.0 0.0 0.0 0.0 0.0
0.0 0.0 0.0 0.0 0.0 0.0 0.0 0.0 0.0 0.0 0.0 0.0 0.0 0.0 0.0 0.0 0.0 0.0 0.0 0.0 0.0 0.0 0.0 0.0 0.0 0.0 0.0 0.0 0.0 0.0 0.0 0.0 0.0 0.0 0.0 0.0 0.0 0.0 0.0 0.0 0.0 0.0 0.0 0.0
0.0 0.0 0.0 0.2 0.0 0.0 0.0 0.0 0.0 0.0 0.0 0.0 0.0 0.0 0.0 0.0 0.0 0.0 0.0 0.0 0.0 0.0 0.0 0.0 0.0 0.0 0.0 0.0 0.0 0.0 0.0 0.0 0.0 0.0 0.0 0.0 0.0 0.0 0.0 0.0 0.0 0.0 0.0 0.0
0.8 0.3 1.3 0.0 0.0 0.0 0.0 0.0 0.0 0.0 0.0 0.0 0.0 0.0 0.0 0.0 0.0 0.0 0.0 0.0 0.0 0.0 0.0 0.0 0.0 0.0 0.0 0.0 0.0 0.0 0.0 0.0 0.0 0.0 0.0 0.0 0.0 0.0 0.0 0.0 0.0 0.0 0.0 0.0
2.0 0.7 0.0 0.0 0.0 0.0 0.0 0.0 0.0 0.0 0.0 0.0 0.0 0.0 0.0 0.0 0.0 0.0 0.0 0.0 0.0 0.0 0.0 0.0 0.0 0.0 0.0 0.0 0.0 0.0 0.0 0.0 0.0 0.0 0.0 0.0 0.0 0.0 0.0 0.0 0.0 0.0 0.0 0.0
1.0 0.9 1.8 0.0 0.0 0.0 0.0 0.0 0.0 0.0 0.0 0.0 0.0 0.1 0.0 0.0 0.0 0.0 0.0 0.0 0.0 0.0 0.0 0.0 0.0 0.0 0.0 0.0 0.0 0.0 0.0 0.0 0.0 0.0 0.0 0.0 0.0 0.0 0.0 0.0 0.0 0.0 0.0 0.0
1.2 1.4 0.4 0.0 0.0 0.0 0.2 0.0 0.0 0.0 0.0 0.0 0.0 0.0 0.0 0.0 0.0 0.0 0.0 0.0 0.0 0.0 0.0 0.0 0.0 0.0 0.0 0.0 0.0 0.0 0.0 0.0 0.0 0.0 0.0 0.0 0.0 0.0 0.0 0.0 0.0 0.0 0.0 0.0
0.5 1.4 1.6 0.0 0.0 0.0 0.0 0.0 0.0 0.0 0.0 0.0 0.0 0.0 0.0 0.0 0.0 0.0 0.0 0.0 0.0 0.0 0.0 0.0 0.0 0.0 0.0 0.0 0.0 0.0 0.0 0.0 0.0 0.0 0.0 0.0 0.0 0.0 0.0 0.0 0.0 0.0 0.2 0.2
0.1 0.3 0.0 0.0 0.0 0.0 0.0 0.0 0.0 0.0 0.0 0.0 0.0 0.0 0.0 0.0 0.0 0.0 0.0 0.0 0.0 0.0 0.0 0.0 0.0 0.0 0.0 0.0 0.0 0.0 0.0 0.0 0.0 0.0 0.0 0.0 0.0 0.0 0.0 0.0 0.2 0.1 0.4 0.8
0.0 0.0 0.0 0.0 0.0 0.0 0.0 0.0 0.0 0.0 0.0 0.0 0.0 0.0 0.0 0.0 0.0 0.0 0.0 0.0 0.0 0.0 0.0 0.0 0.0 0.0 0.0 0.0 0.0 0.0 0.0 0.0 0.0 0.0 0.0 0.0 0.0 0.0 0.0 0.2 0.4 0.4 0.6 0.8
0.0 0.0 0.0 0.0 0.0 0.0 0.0 0.0 0.0 0.0 0.0 0.0 0.0 0.0 0.0 0.0 0.0 0.0 0.0 0.0 0.0 0.0 0.0 0.0 0.0 0.0 0.0 0.0 0.0 0.0 0.0 0.0 0.0 0.1 0.0 0.0 0.0 0.0 0.2 0.1 0.2 0.5 0.7 0.8
0.2 0.0 0.0 0.0 0.0 0.0 0.0 0.0 0.0 0.0 0.0 0.0 0.0 0.0 0.0 0.0 0.0 0.0 0.0 0.0 0.0 0.0 0.1 0.2 0.1 0.1 0.0 0.0 0.0 0.0 0.0 0.1 0.2 0.3 0.2 0.0 0.0 0.0 nan nan nan nan nan 2.5
0.0 0.0 0.0 0.0 0.0 0.0 0.0 0.0 0.0 0.0 0.0 0.0 0.0 0.0 0.1 0.1 0.5 nan 0.2 0.0 0.0 0.0 0.1 0.2 0.5 0.6 0.6 1.2 1.2 1.6 1.9 1.5 1.3 1.0 1.3 1.3 1.4 1.7 2.0 2.8 nan nan nan nan
0.0 0.0 0.0 0.0 0.0 0.0 0.0 0.0 0.0 0.0 0.0 0.0 0.0 0.0 0.0 0.0 0.0 0.0 0.0 0.0 0.0 0.1 0.2 0.2 0.3 0.6 0.8 1.0 1.1 1.5 1.4 0.8 1.7 2.0 2.0 2.3 2.5 2.6 2.2 2.9 4.1 3.6 nan nan
0.0 0.0 0.0 0.0 0.0 0.0 0.0 0.0 0.0 0.0 0.0 0.0 0.0 0.1 0.2 0.4 0.5 0.4 0.1 0.0 0.0 0.1 0.3 0.4 0.5 1.0 1.2 1.3 1.8 2.7 3.2 3.8 4.3 5.2 5.0 3.9 3.1 3.0 2.9 3.8 4.1 4.0 3.5 1.9
0.0 0.0 0.0 0.1 0.4 0.5 0.4 0.5 1.0 0.9 1.9 2.7 2.3 1.5 1.2 1.1 0.9 0.4 0.2 0.2 0.4 1.3 1.5 5.0 2.4 3.9 3.2 2.8 3.7 4.7 5.0 2.1 3.3 4.4 5.2 4.6 4.2 3.9 3.4 3.7 4.2 4.1 3.9 4.2
0.0 0.1 0.2 0.2 0.4 0.4 0.4 0.5 0.6 0.7 0.6 0.5 0.5 0.4 0.2 0.2 0.2 0.5 1.3 1.7 3.2 4.6 4.6 5.8 7.6 6.3 5.4 4.5 3.9 5.2 5.6 4.7 1.2 4.5 3.9 3.5 3.8 4.2 3.5 4.4 4.7 4.1 6.2 9.7
0.4 0.8 1.0 0.8 1.2 1.4 1.2 0.7 0.7 0.7 0.7 0.9 1.7 2.9 4.3 4.1 2.5 3.9 5.4 6.2 7.9 9.0 8.3 8.5 7.0 5.7 5.3 4.5 3.4 3.2 3.5 3.3 3.2 3.5 3.0 4.2 3.2 2.6 3.6 3.8 3.8 4.6 5.6 14.5
0.2 0.4 0.7 0.8 1.1 1.0 1.0 1.2 1.5 1.8 3.9 4.3 5.8 7.2 8.6 11.1 10.7 11.6 11.1 13.2 13.6 7.7 9.6 6.3 1.5 2.4 2.8 2.2 1.3 2.3 3.1 5.2 3.0 2.3 2.5 5.6 5.9 3.4 5.7 7.0 6.1 8.2 5.6 6.3
1.6 1.3 1.5 1.7 1.5 2.1 2.3 4.7 5.1 5.5 7.1 6.8 11.3 12.6 10.1 12.8 12.7 12.5 8.5 7.7 6.9 7.5 4.0 3.4 2.5 2.0 1.8 1.1 1.9 1.6 3.7 5.0 3.2 4.8 6.7 4.0 9.8 14.8 10.4 7.8 7.9 10.1 16.1 12.1
3.7 3.9 4.5 5.3 8.3 7.9 9.0 9.3 7.5 7.7 7.7 9.8 10.6 13.0 12.1 9.2 9.0 10.5 6.6 4.0 4.6 3.0 1.9 0.7 1.6 1.8 0.9 0.8 0.8 6.6 6.0 8.9 9.4 6.4 9.6 12.6 17.0 13.1 14.1 15.5 14.2 17.2 19.7 15.3
5.6 5.8 7.7 6.9 6.9 6.0 7.6 6.6 5.0 6.4 6.2 8.7 12.8 14.6 10.6 4.5 5.9 5.4 7.1 3.1 2.9 2.3 2.4 2.5 1.7 3.3 2.8 4.9 2.0 8.3 6.4 5.3 6.7 6.4 7.3 11.6 13.5 20.9 21.6 18.6 18.1 20.4 19.9 20.0
5.1 5.0 5.3 6.1 5.7 5.7 3.9 3.9 6.3 5.5 9.6 8.3 9.5 5.9 4.6 3.3 3.1 4.6 4.9 1.2 1.7 3.9 1.7 4.0 4.6 5.3 5.6 10.2 9.7 11.0 11.4 11.3 11.2 10.7 11.3 17.5 17.5 28.2 16.3 15.5 17.8 18.4 24.5 16.9
4.5 3.7 3.6 3.9 2.6 1.3 1.5 1.9 1.0 1.5 7.3 2.7 4.3 7.5 2.5 6.4 9.0 1.8 2.3 5.7 5.8 17.6 10.8 10.4 8.9 6.1 6.6 12.4 13.1 16.1 15.1 16.6 17.3 20.0 10.3 9.2 25.8 22.1 18.7 26.1 16.6 18.9 20.9 17.8
2.1 1.5 1.6 1.4 0.7 1.7 0.6 0.7 0.8 0.7 0.6 0.9 0.7 0.6 0.8 1.7 8.3 4.7 7.2 6.9 6.6 5.6 9.3 7.9 6.4 7.2 17.2 18.5 18.5 19.5 19.3 17.1 20.3 22.6 16.1 22.9 21.2 29.7 27.6 22.5 26.2 26.7 27.6 23.3
0.9 1.4 1.2 0.6 1.1 1.3 1.5 1.5 3.1 2.5 2.9 6.8 4.6 13.7 10.3 5.4 4.9 5.1 6.9 7.0 5.1 6.2 6.6 16.6 20.4 20.1 19.0 13.2 17.2 18.0 14.1 11.4 15.2 16.5 18.5 18.3 17.6 15.2 18.9 17.3 23.5 28.8 35.5 38.4
1.9 0.9 2.0 1.7 2.0 2.2 2.4 2.0 4.5 6.3 7.9 11.3 9.9 10.2 6.3 10.1 12.7 7.6 7.8 11.9 12.8 12.9 16.2 19.6 16.9 11.5 10.5 16.5 14.9 13.3 12.4 13.7 11.1 10.4 22.0 25.5 24.4 32.5 28.8 28.5 32.7 34.2 31.3 27.4

GFSNGP_prec_sndepth_066.txt.gz
Snowfall_Accumulation
0.0 0.0 0.0 0.0 0.0 0.0 0.0 0.0 0.0 0.0 0.0 0.0 0.0 0.0 0.0 0.0 0.0 0.0 0.0 0.0 0.0 0.0 0.0 0.0 0.0 0.0 0.0 0.0 0.0 0.0 0.0 0.0 0.0 0.0 0.0 0.0 0.0 0.0 0.0 0.0 0.0 0.0 0.0 0.0
0.0 0.0 0.0 0.0 0.0 0.0 0.0 0.0 0.0 0.0 0.0 0.0 0.0 0.0 0.0 0.0 0.0 0.0 0.0 0.0 0.0 0.0 0.0 0.0 0.0 0.0 0.0 0.0 0.0 0.0 0.0 0.0 0.0 0.0 0.0 0.0 0.0 0.0 0.0 0.0 0.0 0.0 0.0 0.0
0.7 0.0 0.0 0.1 0.0 0.0 0.0 0.0 0.0 0.0 0.0 0.0 0.0 0.0 0.0 0.0 0.0 0.0 0.0 0.0 0.0 0.0 0.0 0.0 0.0 0.0 0.0 0.0 0.0 0.0 0.0 0.0 0.0 0.0 0.0 0.0 0.0 0.0 0.0 0.0 0.0 0.0 0.0 0.0
0.7 0.2 1.2 0.0 0.0 0.0 0.0 0.0 0.0 0.0 0.0 0.0 0.0 0.0 0.0 0.0 0.0 0.0 0.0 0.0 0.0 0.0 0.0 0.0 0.0 0.0 0.0 0.0 0.0 0.0 0.0 0.0 0.0 0.0 0.0 0.0 0.0 0.0 0.0 0.0 0.0 0.0 0.0 0.0
1.4 0.5 0.0 0.0 0.0 0.0 0.0 0.0 0.0 0.0 0.0 0.0 0.0 0.0 0.0 0.0 0.0 0.0 0.0 0.0 0.0 0.0 0.0 0.0 0.0 0.0 0.0 0.0 0.0 0.0 0.0 0.0 0.0 0.0 0.0 0.0 0.0 0.0 0.0 0.0 0.0 0.0 0.0 0.0
0.6 0.3 1.0 0.0 0.0 0.0 0.0 0.0 0.0 0.0 0.0 0.0 0.0 0.0 0.0 0.0 0.0 0.0 0.0 0.0 0.0 0.0 0.0 0.0 0.0 0.0 0.0 0.0 0.0 0.0 0.0 0.0 0.0 0.0 0.0 0.0 0.0 0.0 0.0 0.0 0.0 0.0 0.0 0.0
0.8 0.9 0.3 0.0 0.0 0.0 0.1 0.0 0.0 0.0 0.0 0.0 0.0 0.0 0.0 0.0 0.0 0.0 0.0 0.0 0.0 0.0 0.0 0.0 0.0 0.0 0.0 0.0 0.0 0.0 0.0 0.0 0.0 0.0 0.0 0.0 0.0 0.0 0.0 0.0 0.0 0.0 0.0 0.0
0.4 0.8 1.0 0.0 0.0 0.0 0.0 0.0 0.0 0.0 0.0 0.0 0.0 0.0 0.0 0.0 0.0 0.0 0.0 0.0 0.0 0.0 0.0 0.0 0.0 0.0 0.0 0.0 0.0 0.0 0.0 0.0 0.0 0.0 0.0 0.0 0.0 0.0 0.0 0.0 0.0 0.0 0.1 0.2
0.0 0.2 0.0 0.0 0.0 0.0 0.0 0.0 0.0 0.0 0.0 0.0 0.0 0.0 0.0 0.0 0.0 0.0 0.0 0.0 0.0 0.0 0.0 0.0 0.0 0.0 0.0 0.0 0.0 0.0 0.0 0.0 0.0 0.0 0.0 0.0 0.0 0.0 0.0 0.0 0.2 0.1 0.7 1.3
0.0 0.0 0.0 0.0 0.0 0.0 0.0 0.0 0.0 0.0 0.0 0.0 0.0 0.0 0.0 0.0 0.0 0.0 0.0 0.0 0.0 0.0 0.0 0.0 0.0 0.0 0.0 0.0 0.0 0.0 0.0 0.1 0.1 0.1 0.0 0.0 0.0 0.0 0.0 0.2 0.5 0.5 0.8 1.2
0.0 0.0 0.0 0.0 0.0 0.0 0.0 0.0 0.0 0.0 0.0 0.0 0.0 0.0 0.0 0.0 0.0 0.0 0.0 0.0 0.0 0.0 0.0 0.0 0.0 0.1 0.0 0.0 0.0 0.1 0.1 0.2 0.5 0.6 0.3 0.6 0.7 0.4 0.7 1.0 1.0 1.7 2.2 2.3
0.1 0.0 0.0 0.0 0.0 0.0 0.0 0.0 0.0 0.0 0.0 0.0 0.0 0.0 0.0 0.0 0.0 0.0 0.0 0.0 0.0 0.0 0.0 0.2 0.3 0.5 0.8 0.7 0.7 1.0 1.2 1.2 1.4 1.0 1.2 1.0 0.8 0.8 nan nan nan nan nan 3.3
0.0 0.0 0.0 0.0 0.0 0.0 0.0 0.0 0.0 0.0 0.0 0.0 0.0 0.0 0.0 0.0 0.2 nan 0.2 0.1 0.0 0.1 0.1 0.2 0.5 1.1 1.5 2.5 2.9 4.4 4.8 4.4 4.0 3.3 4.8 4.7 4.1 5.3 5.2 7.0 nan nan nan nan
0.0 0.0 0.0 0.0 0.0 0.0 0.0 0.0 0.0 0.0 0.0 0.0 0.0 0.0 0.0 0.0 0.0 0.0 0.2 0.2 0.2 0.2 0.3 0.4 0.4 1.4 1.7 1.8 1.6 2.3 2.7 1.3 3.4 3.8 4.0 4.2 4.7 5.0 4.4 5.4 6.9 6.2 nan nan
0.0 0.0 0.0 0.0 0.0 0.0 0.0 0.0 0.0 0.0 0.0 0.0 0.0 0.0 0.1 0.3 0.5 0.7 0.8 0.5 0.4 0.3 0.5 0.4 0.5 1.5 1.6 2.1 2.7 3.9 4.0 5.0 5.2 5.9 5.5 4.8 3.9 4.1 4.0 5.1 5.4 5.3 4.7 2.5
0.0 0.0 0.0 0.1 0.2 0.2 0.2 0.3 0.6 0.5 1.5 2.6 2.2 1.5 1.1 0.8 0.8 0.6 0.4 0.3 0.4 1.5 1.7 5.1 2.5 4.3 3.5 2.6 3.4 4.6 4.9 2.2 3.4 4.5 5.6 5.0 4.6 4.5 3.9 4.2 4.6 4.6 4.3 5.0
0.0 0.1 0.1 0.1 0.2 0.2 0.2 0.2 0.3 0.4 0.4 0.4 0.5 0.3 0.2 0.2 0.2 0.6 1.4 1.8 3.3 4.8 4.8 5.8 7.7 6.3 5.4 4.5 3.6 4.8 5.6 4.4 1.2 4.4 3.9 3.7 4.1 4.6 3.7 4.6 5.0 4.1 6.2 9.6
0.2 0.4 0.4 0.3 0.6 0.8 0.7 0.4 0.4 0.5 0.6 0.8 2.1 3.2 4.6 4.3 2.7 4.2 5.6 6.3 7.8 8.9 8.1 8.3 6.9 5.6 5.1 4.3 3.2 2.8 3.3 3.1 3.1 3.4 2.9 4.1 3.1 2.6 3.5 3.7 3.7 4.5 5.6 14.3
0.1 0.2 0.4 0.4 0.6 0.6 0.8 1.4 1.7 2.2 4.4 4.9 6.4 7.9 9.3 11.6 11.1 11.9 11.2 13.1 13.4 7.4 9.4 6.0 1.5 2.3 2.5 2.0 1.0 2.0 2.9 5.0 2.8 2.2 2.4 5.5 5.8 3.3 5.5 6.8 6.0 8.0 5.5 6.2
1.1 0.8 1.0 1.3 1.0 2.1 2.4 5.1 5.6 6.0 7.7 7.4 11.8 13.0 10.5 13.1 12.7 12.4 8.3 7.4 6.7 7.3 3.7 3.1 2.3 1.8 1.5 0.9 1.8 1.5 3.5 4.8 3.1 4.6 6.5 3.8 9.6 14.5 10.2 7.8 7.7 9.9 15.9 11.9
3.7 4.0 4.7 5.4 8.6 8.1 9.1 9.6 7.7 7.9 8.0 10.0 10.6 13.1 12.1 9.0 8.9 10.4 6.4 3.8 4.4 2.7 1.7 0.7 1.4 1.7 0.8 0.6 0.7 6.4 5.8 8.7 9.3 6.3 9.5 12.4 16.7 12.9 13.9 15.3 14.0 17.0 19.5 15.1
5.7 5.9 7.9 7.1 7.1 6.3 7.9 6.9 5.1 6.4 6.2 8.6 12.7 14.5 10.4 4.4 5.8 5.3 6.9 2.9 2.8 2.3 2.3 2.3 1.6 3.3 2.8 4.9 1.9 8.1 6.2 5.2 6.5 6.3 7.2 11.4 13.3 20.7 21.3 18.4 17.9 20.2 19.7 19.8
5.2 5.1 5.5 6.4 5.9 5.9 3.9 3.8 6.2 5.4 9.5 8.2 9.4 5.8 4.4 3.2 3.0 4.4 4.8 1.1 1.6 3.9 1.6 3.9 4.6 5.3 5.6 10.0 9.5 10.9 11.3 11.2 11.0 10.5 11.2 17.4 17.3 27.8 16.1 15.3 17.6 18.2 24.2 16.7
4.6 3.8 3.7 3.9 2.5 1.2 1.4 1.8 0.9 1.4 7.2 2.6 4.2 7.4 2.4 6.2 8.8 1.7 2.2 5.7 5.8 17.5 10.6 10.3 8.9 6.1 6.6 12.2 12.9 15.9 14.9 16.4 17.1 19.8 10.2 9.2 25.5 21.8 18.4 25.8 16.4 18.7 20.7 17.6
2.1 1.5 1.5 1.3 0.6 1.7 0.5 0.6 0.7 0.6 0.5 0.8 0.6 0.5 0.7 1.6 8.1 4.6 7.0 6.8 6.6 5.5 9.1 7.9 6.4 7.2 17.0 18.3 18.3 19.2 19.1 16.9 20.0 22.3 15.9 22.7 21.0 29.3 27.2 22.2 25.9 26.4 27.2 23.1
0.7 1.2 1.0 0.4 0.8 1.0 1.2 1.1 2.7 2.1 2.6 6.6 4.4 13.5 10.1 5.3 4.8 4.9 6.8 6.9 5.0 6.2 6.5 16.4 20.2 19.9 18.8 13.0 17.0 17.8 13.9 11.2 15.0 16.2 18.2 18.1 17.4 15.0 18.7 17.1 23.2 28.4 35.1 37.9
1.6 0.8 1.5 1.4 1.6 2.0 2.0 1.6 4.1 6.1 7.8 11.0 9.7 10.0 6.2 9.9 12.5 7.3 7.7 11.7 12.7 12.8 16.0 19.4 16.8 11.4 10.3 16.3 14.7 13.2 12.3 13.5 11.0 10.2 21.7 25.1 24.1 32.1 28.5 28.1 32.3 33.7 30.9 27.2

GFSNGP_prec_sndepth_069.txt.gz
Snowfall_Accumulation
0.0 0.0 0.0 0.0 0.0 0.0 0.0 0.0 0.1 0.0 0.0 0.0 0.0 0.0 0.0 0.0 0.0 0.0 0.0 0.0 0.0 0.0 0.0 0.0 0.0 0.0 0.0 0.0 0.0 0.0 0.0 0.0 0.0 0.0 0.0 0.0 0.0 0.0 0.0 0.0 0.0 0.0 0.0 0.0
0.0 0.0 0.0 0.0 0.0 0.0 0.0 0.0 0.0 0.0 0.0 0.0 0.0 0.0 0.0 0.0 0.0 0.0 0.0 0.0 0.0 0.0 0.0 0.0 0.0 0.0 0.0 0.0 0.0 0.0 0.0 0.0 0.0 0.0 0.0 0.0 0.0 0.0 0.0 0.0 0.0 0.0 0.0 0.0
0.6 0.0 0.0 0.1 0.0 0.0 0.0 0.0 0.0 0.0 0.0 0.0 0.0 0.0 0.0 0.0 0.0 0.0 0.0 0.0 0.0 0.0 0.0 0.0 0.0 0.0 0.0 0.0 0.0 0.0 0.0 0.0 0.0 0.0 0.0 0.0 0.0 0.0 0.0 0.0 0.0 0.0 0.0 0.0
0.7 0.2 1.5 0.0 0.0 0.0 0.0 0.0 0.0 0.0 0.0 0.0 0.0 0.0 0.0 0.0 0.0 0.0 0.0 0.0 0.0 0.0 0.0 0.0 0.0 0.0 0.0 0.0 0.0 0.0 0.0 0.0 0.0 0.0 0.0 0.0 0.0 0.0 0.0 0.0 0.0 0.0 0.0 0.0
1.6 0.7 0.0 0.0 0.0 0.0 0.0 0.0 0.0 0.0 0.0 0.0 0.0 0.0 0.0 0.0 0.0 0.0 0.0 0.0 0.0 0.0 0.0 0.0 0.0 0.0 0.0 0.0 0.0 0.0 0.0 0.0 0.0 0.0 0.0 0.0 0.0 0.0 0.0 0.0 0.0 0.0 0.0 0.0
0.6 0.7 1.6 0.0 0.0 0.0 0.0 0.1 0.0 0.0 0.0 0.0 0.0 0.0 0.0 0.0 0.0 0.0 0.0 0.0 0.0 0.0 0.0 0.0 0.0 0.0 0.0 0.0 0.0 0.0 0.0 0.0 0.0 0.0 0.0 0.0 0.0 0.0 0.0 0.0 0.0 0.0 0.0 0.0
0.8 1.0 0.3 0.0 0.0 0.0 0.2 0.1 0.0 0.0 0.0 0.0 0.0 0.0 0.0 0.0 0.0 0.0 0.0 0.0 0.0 0.0 0.0 0.0 0.0 0.0 0.0 0.0 0.0 0.0 0.0 0.0 0.0 0.0 0.0 0.0 0.0 0.0 0.0 0.0 0.0 0.0 0.0 0.0
0.4 0.8 1.0 0.0 0.0 0.0 0.0 0.0 0.0 0.0 0.0 0.0 0.0 0.0 0.0 0.0 0.0 0.0 0.0 0.0 0.0 0.0 0.0 0.0 0.0 0.0 0.0 0.0 0.0 0.0 0.0 0.0 0.0 0.0 0.0 0.0 0.0 0.0 0.0 0.0 0.0 0.0 0.2 0.3
0.0 0.2 0.0 0.0 0.0 0.0 0.0 0.0 0.0 0.0 0.0 0.0 0.0 0.0 0.0 0.0 0.0 0.0 0.0 0.0 0.0 0.0 0.0 0.0 0.0 0.0 0.0 0.0 0.0 0.0 0.0 0.0 0.0 0.0 0.0 0.0 0.0 0.0 0.0 0.0 0.2 0.2 0.8 1.4
0.0 0.0 0.0 0.0 0.0 0.0 0.0 0.0 0.0 0.0 0.0 0.0 0.0 0.0 0.0 0.0 0.0 0.0 0.0 0.0 0.0 0.0 0.0 0.0 0.0 0.0 0.0 0.0 0.0 0.0 0.0 0.1 0.1 0.1 0.0 0.0 0.0 0.1 0.1 0.4 1.0 1.0 1.4 1.9
0.0 0.0 0.0 0.0 0.0 0.0 0.0 0.0 0.0 0.0 0.0 0.0 0.0 0.0 0.0 0.0 0.0 0.0 0.0 0.0 0.0 0.0 0.0 0.0 0.0 0.1 0.0 0.0 0.0 0.0 0.1 0.2 0.5 0.6 0.4 0.8 1.1 0.8 1.1 1.7 2.0 3.1 3.8 3.5
0.2 0.0 0.0 0.0 0.0 0.0 0.0 0.0 0.0 0.0 0.0 0.0 0.0 0.0 0.0 0.0 0.0 0.0 0.0 0.0 0.0 0.0 0.0 0.2 0.3 0.5 0.8 0.7 0.6 1.0 1.2 1.2 1.5 1.4 2.1 2.1 2.1 2.3 nan nan nan nan nan 4.1
0.0 0.0 0.0 0.0 0.0 0.0 0.0 0.0 0.0 0.0 0.0 0.0 0.0 0.0 0.0 0.0 0.2 nan 0.2 0.1 0.0 0.2 0.2 0.2 0.6 1.2 1.6 2.6 2.9 4.4 4.8 4.4 4.0 3.5 5.2 5.5 5.3 6.8 6.9 8.7 nan nan nan nan
0.0 0.0 0.0 0.0 0.0 0.0 0.0 0.0 0.0 0.0 0.0 0.0 0.0 0.0 0.0 0.0 0.0 0.0 0.2 0.3 0.3 0.3 0.4 0.4 0.5 1.6 1.8 1.8 1.6 2.4 2.7 1.3 3.5 3.9 4.2 4.5 5.2 5.7 5.0 6.2 7.8 6.9 nan nan
0.0 0.0 0.0 0.0 0.0 0.0 0.0 0.0 0.0 0.0 0.0 0.0 0.0 0.0 0.1 0.3 0.5 0.8 0.9 0.5 0.4 0.3 0.5 0.5 0.6 1.6 1.8 2.2 2.7 3.9 4.0 5.1 5.3 6.0 5.7 5.0 4.1 4.3 4.3 5.4 5.7 5.8 5.0 2.7
0.0 0.0 0.0 0.1 0.2 0.2 0.2 0.3 0.6 0.5 1.5 2.6 2.2 1.5 1.1 0.9 0.8 0.7 0.5 0.3 0.5 1.6 1.8 5.2 2.6 4.5 3.6 2.6 3.4 4.6 4.9 2.2 3.4 4.6 5.6 5.0 4.6 4.5 4.0 4.3 4.7 4.7 4.4 5.1
0.0 0.1 0.1 0.1 0.2 0.2 0.2 0.2 0.3 0.4 0.4 0.4 0.6 0.4 0.2 0.2 0.3 0.7 1.4 1.8 3.3 4.8 4.8 5.8 7.7 6.3 5.4 4.4 3.6 4.8 5.5 4.4 1.2 4.3 3.9 3.7 4.1 4.6 3.7 4.6 5.0 4.0 6.3 9.6
0.2 0.4 0.4 0.3 0.6 0.8 0.8 0.4 0.4 0.5 0.6 0.9 2.1 3.2 4.6 4.3 2.8 4.2 5.7 6.3 7.8 8.9 8.1 8.3 6.8 5.5 5.1 4.3 3.2 2.8 3.3 3.1 3.0 3.4 2.9 4.1 3.2 2.6 3.5 3.7 3.7 4.6 5.6 14.3
0.1 0.2 0.4 0.4 0.6 0.6 0.8 1.4 1.7 2.2 4.5 4.9 6.4 7.9 9.3 11.7 11.1 11.9 11.1 13.1 13.3 7.4 9.3 6.0 1.5 2.3 2.5 2.0 1.0 1.9 2.9 5.0 2.8 2.2 2.4 5.5 5.8 3.3 5.5 6.8 6.0 8.0 5.5 6.2
1.1 0.8 1.0 1.3 1.0 2.1 2.5 5.2 5.6 6.1 7.8 7.4 11.8 13.0 10.5 13.1 12.7 12.4 8.3 7.4 6.7 7.2 3.7 3.1 2.2 1.7 1.5 0.9 1.8 1.5 3.5 4.8 3.1 4.6 6.5 3.8 9.6 14.5 10.2 7.8 7.7 9.9 15.8 11.9
3.8 4.0 4.7 5.4 8.6 8.1 9.1 9.6 7.7 7.9 8.0 9.9 10.6 13.0 12.1 9.0 8.9 10.4 6.4 3.8 4.3 2.7 1.7 0.7 1.4 1.6 0.8 0.6 0.7 6.4 5.8 8.7 9.3 6.3 9.5 12.4 16.7 12.9 13.9 15.3 14.0 17.0 19.5 15.1
5.7 5.9 7.9 7.1 7.1 6.3 8.0 6.9 5.1 6.4 6.2 8.6 12.7 14.5 10.5 4.4 5.8 5.3 6.9 2.9 2.8 2.3 2.3 2.3 1.6 3.3 2.8 4.9 1.9 8.1 6.2 5.2 6.5 6.3 7.2 11.4 13.3 20.6 21.3 18.4 17.9 20.2 19.7 19.8
5.3 5.1 5.5 6.4 5.9 5.9 3.9 3.8 6.2 5.3 9.5 8.2 9.4 5.8 4.4 3.2 3.0 4.4 4.8 1.0 1.6 3.9 1.6 3.9 4.6 5.3 5.6 10.0 9.5 10.8 11.2 11.2 11.1 10.6 11.2 17.3 17.3 27.7 16.1 15.3 17.6 18.2 24.2 16.7
4.6 3.8 3.7 3.9 2.4 1.2 1.4 1.8 0.9 1.4 7.2 2.6 4.2 7.4 2.4 6.3 8.8 1.7 2.2 5.7 5.8 17.5 10.6 10.3 8.9 6.1 6.6 12.2 12.9 15.9 15.0 16.4 17.1 19.7 10.2 9.2 25.4 21.8 18.4 25.7 16.4 18.7 20.6 17.6
2.1 1.5 1.5 1.2 0.6 1.6 0.5 0.6 0.7 0.6 0.5 0.7 0.6 0.5 0.6 1.6 8.1 4.6 7.0 6.8 6.6 5.5 9.2 7.9 6.4 7.2 17.0 18.3 18.3 19.2 19.1 16.9 19.9 22.3 15.9 22.7 21.0 29.3 27.2 22.2 25.8 26.3 27.2 23.1
0.8 1.2 1.0 0.4 0.8 1.0 1.2 1.1 2.7 2.1 2.6 6.6 4.4 13.5 10.1 5.3 4.8 5.0 6.8 6.9 5.0 6.2 6.5 16.4 20.2 19.9 18.8 13.0 17.0 17.8 13.9 11.2 15.0 16.2 18.2 18.1 17.4 15.0 18.7 17.1 23.2 28.3 34.9 37.7
1.6 0.8 1.5 1.4 1.6 2.0 2.0 1.6 4.1 6.2 7.8 11.0 9.6 9.9 6.2 9.9 12.5 7.3 7.7 11.7 12.6 12.8 16.0 19.4 16.8 11.4 10.3 16.3 14.7 13.1 12.2 13.5 11.0 10.2 21.7 25.1 24.1 32.0 28.4 28.0 32.2 33.6 30.8 27.1

GFSNGP_prec_sndepth_072.txt.gz
Snowfall_Accumulation
0.0 0.0 0.0 0.0 0.0 0.0 0.0 0.0 0.2 0.0 0.0 0.0 0.0 0.0 0.0 0.0 0.0 0.0 0.0 0.0 0.0 0.0 0.0 0.0 0.0 0.0 0.0 0.0 0.0 0.0 0.0 0.0 0.0 0.0 0.0 0.0 0.0 0.0 0.0 0.0 0.0 0.0 0.0 0.0
0.0 0.0 0.0 0.0 0.0 0.0 0.0 0.0 0.0 0.0 0.0 0.0 0.0 0.0 0.0 0.0 0.0 0.0 0.0 0.0 0.0 0.0 0.0 0.0 0.0 0.0 0.0 0.0 0.0 0.0 0.0 0.0 0.0 0.0 0.0 0.0 0.0 0.0 0.0 0.0 0.0 0.0 0.0 0.0
0.6 0.0 0.0 0.1 0.0 0.0 0.0 0.0 0.0 0.0 0.0 0.0 0.0 0.0 0.0 0.0 0.0 0.0 0.0 0.0 0.0 0.0 0.0 0.0 0.0 0.0 0.0 0.0 0.0 0.0 0.0 0.0 0.0 0.0 0.0 0.0 0.0 0.0 0.0 0.0 0.0 0.0 0.0 0.0
0.7 0.2 1.5 0.0 0.0 0.0 0.0 0.0 0.0 0.0 0.0 0.0 0.0 0.0 0.0 0.0 0.0 0.0 0.0 0.0 0.0 0.0 0.0 0.0 0.0 0.0 0.0 0.0 0.0 0.0 0.0 0.0 0.0 0.0 0.0 0.0 0.0 0.0 0.0 0.0 0.0 0.0 0.0 0.0
1.6 0.7 0.0 0.0 0.0 0.0 0.0 0.0 0.0 0.0 0.0 0.0 0.0 0.0 0.0 0.0 0.0 0.0 0.0 0.0 0.0 0.0 0.0 0.0 0.0 0.0 0.0 0.0 0.0 0.0 0.0 0.0 0.0 0.0 0.0 0.0 0.0 0.0 0.0 0.0 0.0 0.0 0.0 0.0
0.6 0.7 1.7 0.0 0.0 0.0 0.0 0.1 0.0 0.0 0.0 0.0 0.0 0.0 0.0 0.0 0.0 0.0 0.0 0.0 0.0 0.0 0.0 0.0 0.0 0.0 0.0 0.0 0.0 0.0 0.0 0.0 0.0 0.0 0.0 0.0 0.0 0.0 0.0 0.0 0.0 0.0 0.0 0.0
0.8 1.0 0.3 0.0 0.0 0.0 0.3 0.1 0.0 0.0 0.0 0.0 0.0 0.0 0.0 0.0 0.0 0.0 0.0 0.0 0.0 0.0 0.0 0.0 0.0 0.0 0.0 0.0 0.0 0.0 0.0 0.0 0.0 0.0 0.0 0.0 0.0 0.0 0.0 0.0 0.0 0.0 0.0 0.1
0.5 0.9 1.0 0.0 0.0 0.0 0.0 0.0 0.0 0.0 0.0 0.0 0.0 0.0 0.0 0.0 0.0 0.0 0.0 0.0 0.0 0.0 0.0 0.0 0.0 0.0 0.0 0.0 0.0 0.0 0.0 0.0 0.0 0.0 0.0 0.0 0.0 0.0 0.0 0.0 0.0 0.0 0.3 0.5
0.0 0.2 0.0 0.0 0.0 0.0 0.0 0.0 0.0 0.0 0.0 0.0 0.0 0.0 0.0 0.0 0.0 0.0 0.0 0.0 0.0 0.0 0.0 0.0 0.0 0.0 0.0 0.0 0.0 0.0 0.0 0.0 0.0 0.0 0.0 0.0 0.0 0.0 0.0 0.0 0.2 0.6 1.2 2.1
0.0 0.0 0.0 0.0 0.0 0.0 0.0 0.0 0.0 0.0 0.0 0.0 0.0 0.0 0.0 0.0 0.0 0.0 0.0 0.0 0.0 0.0 0.0 0.0 0.0 0.0 0.0 0.0 0.0 0.0 0.0 0.1 0.1 0.1 0.0 0.0 0.0 0.1 0.1 0.5 1.2 1.5 2.2 2.9
0.0 0.0 0.0 0.0 0.0 0.0 0.0 0.0 0.0 0.0 0.0 0.0 0.0 0.0 0.0 0.0 0.0 0.0 0.0 0.0 0.0 0.0 0.0 0.0 0.0 0.1 0.1 0.0 0.0 0.0 0.1 0.2 0.5 0.6 0.4 0.8 1.2 0.9 1.1 1.9 2.2 3.4 4.3 4.2
0.7 0.3 0.0 0.0 0.0 0.0 0.0 0.0 0.0 0.0 0.0 0.0 0.0 0.0 0.0 0.0 0.0 0.0 0.0 0.0 0.0 0.0 0.0 0.2 0.3 0.5 0.8 0.7 0.6 1.0 1.2 1.2 1.6 1.4 2.0 2.1 2.1 2.3 nan nan nan nan nan 4.9
0.0 0.1 0.2 0.1 0.0 0.0 0.0 0.0 0.0 0.0 0.0 0.0 0.0 0.0 0.0 0.1 0.2 nan 0.2 0.1 0.1 0.2 0.2 0.2 0.6 1.2 1.6 2.6 2.9 4.4 4.8 4.4 4.0 3.5 5.2 5.6 5.3 6.9 7.0 8.9 nan nan nan nan
0.0 0.0 0.1 0.0 0.0 0.0 0.0 0.0 0.0 0.0 0.0 0.0 0.0 0.0 0.0 0.0 0.0 0.0 0.3 0.3 0.3 0.3 0.4 0.4 0.5 1.7 1.9 1.8 1.6 2.4 2.7 1.3 3.5 3.9 4.2 4.5 5.2 5.7 5.0 6.3 7.9 7.0 nan nan
0.0 0.0 0.0 0.0 0.0 0.0 0.0 0.0 0.0 0.0 0.0 0.0 0.0 0.0 0.1 0.3 0.6 0.9 0.9 0.5 0.4 0.3 0.5 0.5 0.6 1.6 1.9 2.2 2.7 3.9 4.0 5.1 5.3 6.0 5.7 5.0 4.1 4.3 4.3 5.4 5.8 5.9 5.2 2.8
0.0 0.0 0.0 0.1 0.2 0.2 0.2 0.3 0.6 0.6 1.5 2.6 2.3 1.5 1.1 0.8 0.8 0.7 0.5 0.3 0.5 1.6 1.8 5.2 2.6 4.5 3.6 2.6 3.4 4.6 4.9 2.2 3.4 4.6 5.6 5.0 4.6 4.5 4.0 4.3 4.7 4.7 4.4 5.1
0.0 0.3 0.1 0.1 0.2 0.2 0.3 0.3 0.3 0.5 0.5 0.5 0.7 0.4 0.2 0.2 0.3 0.7 1.4 1.8 3.3 4.8 4.8 5.7 7.7 6.3 5.4 4.4 3.6 4.8 5.5 4.4 1.2 4.3 3.9 3.7 4.1 4.7 3.7 4.6 5.0 4.0 6.3 9.6
0.2 0.5 0.5 0.3 0.7 0.8 0.9 0.5 0.4 0.5 0.7 0.9 2.1 3.2 4.6 4.4 2.9 4.3 5.7 6.3 7.8 8.8 8.1 8.3 6.8 5.5 5.1 4.3 3.2 2.8 3.3 3.1 3.0 3.4 2.9 4.1 3.2 2.6 3.5 3.7 3.7 4.6 5.6 14.3
0.1 0.3 0.5 0.5 0.6 0.6 0.9 1.5 1.8 2.3 4.6 5.0 6.4 7.9 9.3 11.6 11.1 11.9 11.1 13.1 13.3 7.4 9.3 6.0 1.5 2.2 2.5 1.9 1.0 1.9 2.9 5.0 2.8 2.2 2.4 5.5 5.8 3.3 5.5 6.8 6.0 8.1 5.5 6.2
1.2 0.8 1.0 1.4 1.1 2.1 2.5 5.2 5.6 6.1 7.8 7.4 11.8 13.0 10.5 13.1 12.7 12.4 8.3 7.4 6.7 7.2 3.7 3.1 2.2 1.7 1.5 0.9 1.8 1.5 3.5 4.8 3.1 4.6 6.5 3.8 9.6 14.5 10.2 7.8 7.7 9.9 15.9 11.9
3.8 4.0 4.7 5.5 8.6 8.1 9.2 9.6 7.7 7.9 8.0 9.9 10.6 13.0 12.1 9.0 8.9 10.4 6.4 3.8 4.3 2.7 1.6 0.7 1.4 1.7 0.8 0.6 0.7 6.4 5.8 8.7 9.3 6.3 9.5 12.4 16.7 12.9 13.9 15.3 14.0 17.0 19.5 15.2
5.7 5.9 8.0 7.1 7.1 6.4 8.0 6.9 5.1 6.4 6.2 8.6 12.7 14.4 10.4 4.4 5.8 5.2 6.9 2.9 2.8 2.3 2.3 2.3 1.6 3.3 2.8 4.9 1.9 8.1 6.2 5.2 6.5 6.3 7.2 11.4 13.3 20.6 21.3 18.4 17.9 20.2 19.7 19.8
5.3 5.1 5.5 6.4 5.9 6.0 3.9 3.8 6.2 5.3 9.5 8.2 9.4 5.8 4.4 3.2 3.0 4.4 4.8 1.0 1.6 3.9 1.6 3.9 4.6 5.3 5.6 10.0 9.6 10.8 11.2 11.2 11.1 10.6 11.2 17.3 17.3 27.7 16.1 15.3 17.6 18.2 24.2 16.7
4.6 3.8 3.7 3.9 2.4 1.1 1.3 1.8 0.9 1.4 7.2 2.6 4.2 7.4 2.5 6.3 8.8 1.7 2.2 5.7 5.8 17.5 10.6 10.3 8.9 6.1 6.6 12.2 12.9 15.9 15.0 16.4 17.1 19.7 10.2 9.2 25.4 21.8 18.4 25.7 16.4 18.7 20.6 17.6
2.1 1.5 1.5 1.3 0.6 1.6 0.5 0.6 0.7 0.6 0.5 0.7 0.6 0.5 0.6 1.6 8.1 4.6 7.0 6.8 6.6 5.6 9.2 7.9 6.4 7.2 17.0 18.3 18.3 19.2 19.0 17.0 19.9 22.3 15.9 22.6 21.0 29.3 27.1 22.2 25.8 26.2 27.1 23.0
0.8 1.2 1.0 0.4 0.8 1.0 1.2 1.1 2.7 2.1 2.6 6.6 4.4 13.5 10.1 5.3 4.8 5.0 6.8 6.9 5.0 6.2 6.5 16.4 20.2 19.9 18.8 13.0 17.0 17.8 13.9 11.2 15.0 16.2 18.2 18.0 17.4 15.0 18.7 17.1 23.1 28.3 34.9 37.6
1.6 0.8 1.5 1.4 1.6 2.0 2.0 1.6 4.1 6.2 7.8 11.0 9.6 9.9 6.2 9.9 12.5 7.3 7.7 11.7 12.6 12.8 16.0 19.3 16.8 11.4 10.4 16.3 14.7 13.2 12.2 13.5 11.0 10.2 21.7 25.0 24.0 31.9 28.3 28.0 32.1 33.5 30.7 27.0

GFSNGP_prec_sndepth_075.txt.gz
Snowfall_Accumulation
0.0 0.0 0.0 0.0 0.0 0.0 0.0 0.0 0.3 0.0 0.0 0.0 0.0 0.0 0.0 0.0 0.0 0.0 0.0 0.0 0.0 0.0 0.0 0.0 0.0 0.0 0.0 0.0 0.0 0.0 0.0 0.0 0.0 0.0 0.0 0.0 0.0 0.0 0.0 0.0 0.0 0.0 0.0 0.0
0.0 0.0 0.0 0.0 0.0 0.0 0.0 0.0 0.0 0.0 0.0 0.0 0.0 0.0 0.0 0.0 0.0 0.0 0.0 0.0 0.0 0.0 0.0 0.0 0.0 0.0 0.0 0.0 0.0 0.0 0.0 0.0 0.0 0.0 0.0 0.0 0.0 0.0 0.0 0.0 0.0 0.0 0.0 0.0
0.6 0.0 0.0 0.1 0.0 0.0 0.0 0.0 0.0 0.0 0.0 0.0 0.0 0.0 0.0 0.0 0.0 0.0 0.0 0.0 0.0 0.0 0.0 0.0 0.0 0.0 0.0 0.0 0.0 0.0 0.0 0.0 0.0 0.0 0.0 0.0 0.0 0.0 0.0 0.0 0.0 0.0 0.0 0.0
0.7 0.2 1.5 0.0 0.0 0.0 0.0 0.0 0.0 0.0 0.0 0.0 0.0 0.0 0.0 0.0 0.0 0.0 0.0 0.0 0.0 0.0 0.0 0.0 0.0 0.0 0.0 0.0 0.0 0.0 0.0 0.0 0.0 0.0 0.0 0.0 0.0 0.0 0.0 0.0 0.0 0.0 0.0 0.0
1.6 0.7 0.0 0.0 0.0 0.0 0.0 0.0 0.0 0.0 0.0 0.0 0.0 0.0 0.0 0.0 0.0 0.0 0.0 0.0 0.0 0.0 0.0 0.0 0.0 0.0 0.0 0.0 0.0 0.0 0.0 0.0 0.0 0.0 0.0 0.0 0.0 0.0 0.0 0.0 0.0 0.0 0.0 0.0
0.6 0.7 1.7 0.0 0.0 0.0 0.0 0.1 0.0 0.0 0.0 0.0 0.0 0.0 0.2 0.0 0.0 0.0 0.0 0.0 0.0 0.0 0.0 0.0 0.0 0.0 0.0 0.0 0.0 0.0 0.0 0.0 0.0 0.0 0.0 0.0 0.0 0.0 0.0 0.0 0.0 0.0 0.0 0.0
0.8 1.0 0.3 0.0 0.0 0.0 0.6 0.1 0.0 0.0 0.0 0.0 0.0 0.0 0.0 0.0 0.0 0.0 0.0 0.0 0.0 0.0 0.0 0.0 0.0 0.0 0.0 0.0 0.0 0.0 0.0 0.0 0.0 0.0 0.0 0.0 0.0 0.0 0.0 0.0 0.0 0.0 0.0 0.1
0.5 1.0 1.0 0.0 0.0 0.0 0.0 0.0 0.0 0.0 0.0 0.0 0.0 0.0 0.0 0.0 0.0 0.0 0.0 0.0 0.0 0.0 0.0 0.0 0.0 0.0 0.0 0.0 0.0 0.0 0.0 0.0 0.0 0.0 0.0 0.0 0.0 0.0 0.0 0.0 0.0 0.1 0.4 0.6
0.0 0.2 0.0 0.0 0.0 0.0 0.0 0.0 0.0 0.0 0.0 0.0 0.0 0.0 0.2 0.0 0.0 0.0 0.0 0.0 0.0 0.0 0.0 0.0 0.0 0.0 0.0 0.0 0.0 0.0 0.0 0.0 0.0 0.0 0.0 0.0 0.0 0.0 0.0 0.0 0.2 0.6 1.3 2.2
0.1 0.0 0.0 0.0 0.0 0.0 0.0 0.0 0.0 0.0 0.0 0.0 0.0 0.0 0.0 0.0 0.0 0.0 0.0 0.0 0.0 0.0 0.0 0.0 0.0 0.0 0.0 0.0 0.0 0.0 0.0 0.1 0.1 0.1 0.0 0.0 0.0 0.1 0.1 0.5 1.2 1.5 2.2 2.9
0.0 0.0 0.0 0.0 0.0 0.0 0.1 0.0 0.0 0.0 0.0 0.0 0.0 0.0 0.0 0.0 0.0 0.0 0.0 0.0 0.0 0.0 0.0 0.1 0.1 0.1 0.1 0.0 0.0 0.0 0.1 0.2 0.5 0.6 0.4 0.9 1.3 0.9 1.2 2.1 2.2 3.4 4.4 4.2
1.2 0.3 0.0 0.0 0.0 0.2 0.7 0.2 0.0 0.0 0.0 0.0 0.0 0.0 0.0 0.0 0.0 0.0 0.0 0.0 0.0 0.0 0.0 0.3 0.3 0.5 0.8 0.7 0.6 1.0 1.2 1.2 1.6 1.4 2.0 2.1 2.1 2.4 nan nan nan nan nan 4.9
0.7 0.2 0.5 0.4 0.1 0.1 0.2 0.2 0.0 0.0 0.0 0.0 0.0 0.0 0.0 0.1 0.2 nan 0.2 0.1 0.1 0.2 0.2 0.3 0.7 1.3 1.6 2.6 2.9 4.4 4.9 4.4 4.0 3.5 5.2 5.6 5.3 6.9 7.0 8.9 nan nan nan nan
0.0 0.0 0.6 0.2 0.5 0.0 0.0 0.0 0.0 0.0 0.0 0.0 0.0 0.0 0.0 0.1 0.0 0.1 0.3 0.3 0.3 0.3 0.4 0.5 0.5 1.8 1.9 1.8 1.6 2.4 2.7 1.3 3.5 3.9 4.2 4.5 5.2 5.7 5.0 6.3 7.9 7.1 nan nan
0.0 0.0 0.0 0.0 0.0 0.0 0.0 0.0 0.0 0.0 0.0 0.0 0.0 0.1 0.1 0.3 0.6 1.0 0.9 0.5 0.4 0.3 0.5 0.5 0.6 1.7 1.9 2.2 2.7 4.0 4.0 5.1 5.3 6.0 5.7 5.0 4.1 4.3 4.3 5.4 5.8 5.9 5.2 2.8
0.0 0.0 0.0 0.1 0.2 0.2 0.2 0.3 0.6 0.6 1.5 2.7 2.3 1.5 1.2 0.9 0.9 0.7 0.5 0.3 0.5 1.6 1.8 5.2 2.6 4.5 3.6 2.6 3.4 4.6 4.9 2.2 3.4 4.6 5.6 5.0 4.6 4.5 4.0 4.3 4.7 4.7 4.4 5.2
0.0 0.3 0.1 0.2 0.2 0.2 0.3 0.3 0.3 0.5 0.5 0.5 0.7 0.4 0.2 0.2 0.3 0.7 1.4 1.8 3.3 4.8 4.8 5.7 7.7 6.3 5.4 4.4 3.6 4.8 5.5 4.4 1.2 4.3 3.9 3.7 4.1 4.7 3.7 4.6 5.0 4.1 6.4 9.6
0.3 0.6 0.5 0.3 0.7 0.8 0.9 0.5 0.4 0.5 0.7 1.0 2.1 3.2 4.6 4.4 2.9 4.3 5.7 6.3 7.7 8.8 8.1 8.3 6.8 5.5 5.1 4.3 3.2 2.8 3.3 3.1 3.0 3.4 2.9 4.1 3.2 2.6 3.5 3.7 3.7 4.6 5.6 14.2
0.2 0.3 0.5 0.5 0.6 0.6 0.9 1.5 1.8 2.3 4.6 5.0 6.5 7.9 9.3 11.6 11.1 11.9 11.1 13.1 13.3 7.4 9.3 6.0 1.5 2.2 2.4 1.9 1.0 1.9 2.9 5.0 2.8 2.2 2.4 5.5 5.8 3.3 5.5 6.8 6.0 8.1 5.5 6.2
1.2 0.8 1.0 1.4 1.1 2.1 2.6 5.3 5.7 6.1 7.9 7.4 11.8 13.0 10.4 13.1 12.7 12.3 8.3 7.4 6.7 7.2 3.7 3.1 2.2 1.7 1.5 0.9 1.8 1.5 3.5 4.8 3.1 4.6 6.5 3.8 9.6 14.5 10.2 7.8 7.7 9.9 15.9 12.0
3.9 4.1 4.8 5.5 8.7 8.2 9.2 9.6 7.7 7.9 8.1 9.9 10.6 13.0 12.0 9.0 8.9 10.4 6.4 3.8 4.3 2.7 1.6 0.7 1.4 1.6 0.8 0.6 0.7 6.4 5.8 8.7 9.3 6.3 9.5 12.4 16.7 12.9 13.9 15.3 14.0 17.0 19.5 15.2
5.8 5.9 8.0 7.2 7.1 6.4 8.0 6.9 5.1 6.4 6.2 8.6 12.7 14.4 10.4 4.4 5.8 5.2 6.9 2.9 2.8 2.3 2.3 2.3 1.6 3.3 2.8 4.9 1.9 8.1 6.2 5.2 6.5 6.3 7.2 11.4 13.3 20.6 21.2 18.3 17.9 20.2 19.7 19.8
5.3 5.2 5.5 6.4 5.9 6.0 3.9 3.8 6.2 5.3 9.4 8.2 9.4 5.8 4.4 3.2 3.0 4.4 4.8 1.0 1.6 3.9 1.6 3.9 4.6 5.3 5.6 10.0 9.6 10.8 11.2 11.2 11.1 10.6 11.2 17.3 17.3 27.7 16.1 15.3 17.5 18.2 24.1 16.7
4.7 3.8 3.7 3.9 2.4 1.1 1.3 1.8 0.9 1.3 7.2 2.6 4.2 7.4 2.5 6.3 8.8 1.7 2.2 5.7 5.8 17.5 10.6 10.3 8.9 6.1 6.6 12.2 12.9 15.9 15.0 16.4 17.1 19.7 10.2 9.2 25.4 21.7 18.4 25.6 16.3 18.7 20.6 17.6
2.1 1.5 1.5 1.3 0.6 1.6 0.5 0.6 0.7 0.6 0.5 0.7 0.5 0.5 0.6 1.6 8.1 4.6 7.0 6.8 6.6 5.6 9.2 7.9 6.4 7.2 17.0 18.3 18.3 19.2 19.0 17.0 19.9 22.2 15.9 22.6 21.0 29.2 27.1 22.1 25.7 26.2 27.1 23.0
0.9 1.3 1.0 0.4 0.8 1.0 1.2 1.1 2.7 2.1 2.6 6.6 4.4 13.5 10.1 5.3 4.8 5.0 6.8 6.9 5.0 6.2 6.5 16.4 20.2 19.8 18.8 13.0 17.0 17.8 13.9 11.3 14.9 16.2 18.1 18.0 17.4 15.0 18.7 17.1 23.1 28.2 34.8 37.5
1.6 0.8 1.5 1.4 1.6 2.0 2.0 1.6 4.2 6.3 7.9 11.1 9.6 9.9 6.2 9.9 12.5 7.3 7.7 11.7 12.7 12.8 16.0 19.3 16.8 11.4 10.4 16.3 14.7 13.2 12.2 13.5 11.0 10.2 21.6 25.0 24.0 31.8 28.3 27.9 32.0 33.5 30.7 27.0